GFSMA_925_spd_000.txt.gz
Wind_Speed
2 3 2 4 7 9 12 11 11 16 20 22 22 23 24 21 17 15 15 15 16 17 19 22 21 19 18 20 20 21 20 20 20 19 19 22 24 25 27 28 27 26 25
5 3 2 6 9 12 15 16 18 21 24 25 27 25 26 28 27 23 22 21 21 21 20 21 22 23 23 21 21 21 22 21 21 21 21 21 23 25 28 29 28 28 26
3 4 5 10 12 15 18 19 20 20 19 18 20 19 19 21 23 26 28 30 29 26 26 25 25 24 24 26 25 23 23 23 23 22 22 21 23 23 26 29 30 28 27
3 5 8 12 14 15 19 20 17 14 15 17 20 19 22 22 23 24 27 31 28 34 32 31 30 27 26 24 26 24 20 20 20 21 22 22 22 23 24 27 28 28 27
8 10 12 14 17 14 16 17 15 15 18 20 22 23 25 28 29 29 27 24 24 29 34 39 37 35 31 28 26 24 23 20 19 19 19 22 22 23 22 22 24 29 31
7 10 17 16 11 10 11 12 14 18 20 23 27 27 27 27 26 19 18 15 20 17 14 20 31 39 38 33 30 27 24 21 19 17 17 17 21 23 23 21 19 25 27
16 18 15 9 8 9 11 13 14 16 18 23 26 28 26 26 19 24 15 14 16 17 21 25 22 22 34 36 33 30 28 22 21 19 17 17 18 21 21 21 19 19 24
11 10 10 12 12 13 15 17 18 19 16 17 13 14 6 19 19 18 17 17 24 23 26 24 21 22 18 23 27 35 33 28 24 22 20 19 20 20 20 19 18 17 19
7 10 13 15 16 16 16 17 18 19 16 15 10 5 3 3 6 11 23 19 27 26 29 25 22 22 22 22 21 23 29 30 31 25 22 20 19 17 18 19 18 17 17
10 14 14 15 14 13 15 15 17 16 17 13 11 9 6 4 2 7 7 25 23 32 31 29 30 21 16 19 21 19 18 24 30 26 20 16 15 14 14 16 16 17 16
12 15 17 16 14 15 16 15 15 15 14 11 10 10 9 11 5 5 10 11 21 26 33 28 21 19 15 15 18 19 20 9 11 15 16 18 16 14 13 13 14 16 16
11 11 11 11 12 14 15 14 14 16 19 19 19 17 13 7 8 5 6 18 20 21 24 23 14 19 17 17 16 16 18 21 13 8 7 9 15 16 15 13 12 14 15
8 7 7 10 11 11 13 15 19 22 22 21 20 20 19 21 21 21 15 14 10 23 15 19 17 19 18 20 17 15 19 17 18 12 6 7 11 13 11 11 13 14 16
3 4 5 6 9 12 13 14 15 14 16 18 18 18 21 20 17 17 10 11 10 14 21 17 17 19 21 20 18 15 16 19 19 20 28 22 15 17 12 11 11 15 16
3 3 6 10 12 15 14 13 13 14 14 16 18 19 20 20 20 19 18 16 8 6 9 12 17 20 22 22 14 14 11 13 15 16 18 23 16 13 18 17 10 13 15
2 5 10 12 10 11 13 12 13 13 15 15 15 14 13 17 22 24 23 20 19 11 4 15 21 21 15 14 13 13 8 13 10 12 16 22 15 13 8 8 12 10 9
6 6 9 7 8 9 9 10 11 9 9 6 8 12 17 20 23 25 25 24 19 19 10 17 20 19 12 15 16 14 10 15 11 15 16 21 21 14 10 11 10 11 11
3 7 8 9 10 9 9 10 13 8 6 6 10 15 20 23 26 28 28 26 25 26 18 10 9 9 13 16 18 19 17 9 8 16 15 15 21 24 13 12 10 9 11
12 21 8 8 11 13 15 13 7 4 5 8 14 18 19 21 26 27 27 26 23 25 16 9 9 11 14 18 21 17 16 16 15 6 15 14 21 24 16 13 13 12 11
13 20 7 11 15 14 14 11 8 6 9 16 20 17 19 22 23 25 26 23 20 21 22 17 8 5 5 13 12 11 14 13 18 12 1 8 9 2 14 12 11 10 11
11 8 9 14 14 15 13 9 6 12 18 18 20 17 18 19 20 19 19 15 17 15 12 11 8 3 5 7 7 4 12 17 17 7 9 10 10 9 6 2 9 12 13
8 7 16 14 12 10 10 9 16 16 16 17 15 17 19 19 17 19 18 18 15 13 12 9 9 5 8 8 9 12 12 10 3 7 12 16 12 9 8 7 6 1 4
14 16 11 5 7 6 11 14 15 14 15 14 16 18 19 18 21 23 22 20 20 16 13 13 14 16 14 14 13 14 13 11 11 8 10 16 15 20 15 10 7 6 5
17 8 2 3 7 9 11 11 11 14 14 14 17 18 21 22 22 21 22 17 17 17 16 16 16 17 18 17 16 17 16 13 15 18 15 10 17 14 16 14 12 12 14
7 2 2 5 7 9 10 10 11 12 14 19 21 20 19 20 20 19 22 15 17 20 16 12 12 11 11 12 13 14 14 10 10 14 12 11 17 20 21 20 14 15 17
1 5 5 7 9 10 11 10 12 18 19 18 18 18 17 19 20 21 16 15 16 21 21 18 16 17 18 19 18 17 16 11 7 3 12 10 13 8 5 10 15 15 11

GFSMA_925_spd_003.txt.gz
Wind_Speed
2 2 3 3 5 7 10 12 12 14 17 19 19 17 18 18 19 23 24 22 21 20 21 21 20 19 18 18 19 19 20 19 17 18 19 19 18 19 20 23 25 27 27
7 5 2 2 5 8 11 13 14 14 12 12 14 14 14 16 16 17 19 24 28 29 28 27 24 22 23 21 20 20 19 21 21 20 19 20 18 18 21 22 24 28 28
2 3 2 7 9 12 15 15 13 12 14 10 11 12 15 17 20 22 19 15 15 17 26 35 34 31 26 24 25 24 21 19 21 22 21 20 19 19 20 21 25 28 28
3 7 9 12 15 19 16 16 15 14 11 12 15 16 18 20 23 25 20 16 14 14 16 18 24 34 37 34 30 28 21 19 20 19 20 20 19 19 21 20 24 26 28
3 7 12 17 17 14 13 14 14 13 11 14 17 19 22 25 27 20 17 15 15 16 16 18 19 20 28 34 36 29 26 20 19 17 17 18 18 18 19 19 19 22 29
7 11 13 12 12 11 14 16 17 17 18 21 23 21 26 26 19 16 14 12 13 15 18 21 24 24 19 19 24 30 27 26 21 18 17 16 17 18 19 19 19 19 21
11 11 11 11 12 13 15 17 19 21 22 25 20 24 24 12 20 10 14 14 18 18 19 23 26 27 27 23 19 23 25 26 25 22 18 18 17 18 19 17 17 17 19
11 12 11 11 12 14 16 18 20 20 19 21 11 13 4 13 3 20 10 11 21 20 27 29 26 25 27 28 25 22 22 26 24 24 23 20 18 19 18 18 16 15 15
9 10 12 13 12 10 12 14 15 14 14 15 14 7 4 3 6 7 23 13 27 22 29 28 28 27 22 24 25 25 22 22 28 28 22 20 20 18 16 16 14 14 15
10 12 14 11 8 9 12 15 13 12 11 14 7 12 11 9 3 5 9 26 18 31 31 32 25 22 17 18 20 20 22 22 22 26 28 21 16 13 11 12 12 13 13
12 12 14 11 9 7 11 12 9 9 10 11 11 13 12 15 8 6 10 10 22 25 34 29 29 16 18 16 16 19 19 24 18 20 16 14 13 10 9 10 11 10 12
24 20 15 5 3 9 10 8 8 11 12 10 11 12 12 8 13 9 6 16 16 22 23 28 17 20 18 17 18 16 15 18 17 19 18 16 10 7 8 7 9 9 9
26 18 10 3 6 8 6 7 8 8 9 8 8 9 9 11 13 13 11 14 9 21 14 20 21 22 21 22 21 15 12 13 13 11 20 21 10 5 3 6 5 7 9
20 13 7 3 8 3 7 7 6 7 7 9 10 11 12 11 9 12 13 11 9 9 18 17 17 16 23 21 17 9 10 8 11 16 16 19 22 20 8 10 5 4 8
9 7 4 6 7 10 6 7 7 8 9 10 12 13 13 10 10 14 16 16 9 8 9 16 9 20 18 21 11 8 6 8 11 10 12 15 22 22 17 15 12 11 8
9 7 9 14 7 10 11 9 10 11 12 15 14 12 13 12 14 17 20 20 17 16 10 15 22 24 17 16 16 7 2 5 12 12 8 7 14 22 22 22 9 11 11
6 3 5 7 12 10 9 11 12 16 16 12 9 10 15 17 18 21 22 23 24 21 13 17 23 23 15 11 15 14 10 4 6 7 10 10 10 17 16 14 9 11 12
1 1 6 13 11 9 12 13 15 14 9 10 10 14 20 21 20 21 24 24 22 23 21 16 18 10 9 8 12 15 14 14 9 6 15 17 12 8 15 12 13 10 9
14 24 25 15 10 11 12 14 14 11 10 10 15 19 20 18 20 23 24 25 24 23 22 21 19 18 17 13 12 12 11 12 12 12 4 7 12 13 12 18 17 16 14
20 13 14 12 11 12 12 14 14 12 12 18 19 20 18 17 20 23 24 19 20 18 16 16 18 18 14 9 6 4 9 11 12 8 10 11 6 5 5 11 14 15 13
14 13 17 12 13 12 15 13 11 13 18 20 20 20 18 18 20 20 20 21 22 18 13 12 10 6 8 7 6 3 5 10 13 13 11 7 10 8 11 9 6 10 12
18 6 11 16 12 10 7 8 14 17 19 19 21 20 19 21 19 22 22 21 20 19 15 12 10 5 8 9 6 5 6 3 2 3 7 10 10 6 7 8 8 6 5
9 12 17 7 3 5 9 12 14 16 19 19 18 20 21 19 23 22 21 20 21 18 16 18 16 14 14 17 13 11 9 8 8 13 10 9 10 14 12 8 2 1 1
12 19 6 2 4 8 11 12 13 15 15 16 20 21 20 22 22 21 24 18 17 15 12 13 15 18 18 17 17 16 14 13 13 14 12 5 10 10 11 14 14 10 11
12 5 2 3 7 9 12 10 12 13 17 19 18 20 17 19 19 22 20 19 17 18 17 15 15 16 14 9 13 13 14 10 10 11 10 11 12 13 14 13 14 14 16
2 5 1 4 6 9 9 10 12 14 16 16 21 18 16 17 21 21 21 19 17 20 18 17 17 15 13 16 18 15 14 10 9 3 10 11 9 6 3 7 12 19 16

GFSMA_925_spd_006.txt.gz
Wind_Speed
3 2 0 2 4 6 8 10 12 12 12 12 14 13 11 13 13 14 14 14 16 19 22 24 25 24 23 22 20 19 18 17 16 16 14 15 14 14 13 17 19 21 23
4 3 1 2 6 10 13 15 14 11 9 10 8 8 11 15 18 20 18 16 14 15 18 20 22 25 27 27 24 23 24 23 20 19 18 16 16 14 14 14 18 21 23
2 3 1 5 9 13 13 10 8 7 8 8 10 11 12 16 19 22 20 15 15 14 14 15 18 22 26 27 28 25 20 23 24 20 19 17 16 16 15 15 15 18 21
4 5 8 11 12 10 8 8 8 9 9 12 13 15 16 18 21 16 11 11 11 11 13 18 18 18 19 22 26 28 22 19 22 24 21 17 16 15 15 15 16 15 17
10 13 13 11 9 8 9 10 11 13 12 14 17 15 18 19 15 8 9 10 10 13 16 20 23 23 23 23 22 21 23 21 20 20 22 21 18 15 14 14 15 15 15
9 9 9 9 8 9 10 11 12 13 14 17 18 15 20 11 10 8 11 10 11 13 17 23 27 28 28 28 25 24 21 21 20 20 20 21 21 19 16 15 13 14 14
7 7 8 9 10 11 11 12 14 16 18 19 9 22 15 1 6 12 9 13 14 19 22 27 30 31 31 30 29 28 26 21 19 18 19 20 21 20 18 16 15 14 13
9 10 11 13 13 12 11 12 15 17 12 14 8 7 3 5 4 19 9 17 18 25 24 28 30 31 30 29 28 28 28 25 22 19 21 18 17 20 20 17 16 14 12
9 11 14 17 15 10 7 9 13 16 9 8 7 5 3 2 7 9 19 14 29 21 27 29 29 26 27 25 27 26 27 28 24 21 20 21 17 16 21 19 15 13 13
16 19 23 16 12 5 7 10 9 10 8 8 6 7 6 4 2 4 7 20 18 26 27 27 27 27 21 21 23 23 23 25 25 21 20 19 20 14 15 14 16 12 11
23 20 20 18 10 4 5 4 5 7 8 6 5 6 6 9 6 5 7 10 19 17 17 27 25 22 24 20 22 22 22 22 23 20 17 16 13 15 13 10 10 10 9
23 24 17 7 1 6 8 9 10 9 6 6 6 6 6 3 6 3 3 9 14 18 25 16 20 25 20 22 23 23 21 19 19 19 16 17 15 12 10 9 9 10 7
23 26 11 2 4 8 10 11 10 6 5 5 6 7 7 9 10 9 7 8 6 20 15 21 20 26 22 23 23 21 17 15 16 18 16 12 10 15 8 8 8 8 10
24 20 9 6 6 9 9 7 7 7 7 9 10 11 11 12 11 10 7 9 7 9 19 19 21 24 22 25 21 23 17 11 11 12 17 14 14 16 13 12 7 3 3
22 12 10 3 15 5 8 11 12 10 10 12 13 13 15 13 11 12 13 14 10 9 11 17 19 22 26 25 20 21 19 11 10 12 10 12 15 13 14 21 16 9 4
10 8 4 7 4 6 12 14 11 11 14 14 13 13 12 12 14 17 19 20 20 19 9 21 24 25 25 27 18 13 20 16 9 9 8 10 12 13 15 18 18 15 12
9 10 8 11 10 13 11 11 12 14 15 14 12 12 13 15 20 20 21 22 24 22 16 26 26 28 29 26 18 16 18 20 14 8 7 10 10 13 13 11 12 12 8
12 12 13 12 17 14 11 12 13 15 14 13 13 12 17 22 22 21 21 23 24 25 21 21 25 26 26 18 13 14 14 21 18 13 4 8 10 9 15 13 12 14 15
11 12 16 15 10 12 12 12 14 15 13 12 13 18 20 21 22 22 23 24 24 21 23 16 20 24 27 27 17 16 13 10 13 11 10 6 8 9 11 18 20 12 13
20 18 15 13 12 12 13 13 12 10 12 15 19 20 21 22 21 23 22 21 20 24 22 18 17 18 19 24 18 12 12 8 8 9 5 8 7 7 3 6 15 12 16
16 17 19 10 9 12 11 8 8 12 16 19 21 22 22 20 21 22 22 22 23 20 18 19 15 15 13 10 6 6 8 9 11 9 9 6 5 7 9 4 1 14 18
13 10 9 10 9 4 4 7 11 15 19 20 22 19 21 20 19 20 23 22 22 22 20 18 17 15 15 13 14 9 8 5 2 4 4 6 5 3 5 6 4 2 9
17 13 16 9 1 5 8 10 14 16 17 17 18 22 21 17 19 21 22 22 23 19 17 18 14 15 16 14 14 14 13 10 9 13 12 12 9 10 9 4 4 3 6
16 13 10 2 3 6 10 14 16 16 17 19 18 17 19 18 19 19 24 18 19 19 17 14 16 19 19 18 22 20 18 16 17 17 12 5 10 11 9 11 10 9 6
12 7 5 2 4 6 10 12 12 15 16 17 16 18 16 17 18 21 23 20 18 18 16 16 16 17 18 19 18 12 18 13 12 14 13 13 13 13 12 13 14 14 15
6 8 6 1 3 6 9 11 10 12 15 17 20 17 15 16 19 20 21 18 18 14 16 16 14 18 16 18 18 18 18 8 8 6 14 11 9 6 3 6 13 18 18

GFSMA_925_spd_009.txt.gz
Wind_Speed
4 3 2 0 3 5 8 10 11 10 9 8 8 7 7 8 11 12 13 15 15 15 15 14 15 17 17 15 14 18 19 19 19 17 15 14 13 13 12 13 14 15 18
4 2 1 3 5 9 11 11 9 6 5 5 4 5 8 10 11 13 11 13 14 14 15 15 15 15 15 17 16 14 18 20 18 17 16 17 15 15 14 13 13 15 15
3 3 3 6 9 10 8 6 5 4 3 4 6 7 9 11 11 11 9 9 9 11 11 13 14 16 18 20 20 18 14 14 21 19 17 17 17 15 14 14 14 15 15
4 4 6 6 6 6 6 5 5 5 5 7 10 10 11 11 10 3 3 4 5 6 9 12 15 19 22 22 21 20 19 16 13 19 19 16 17 17 16 13 14 16 15
3 5 5 5 4 5 5 5 6 6 7 10 12 11 14 13 6 1 2 4 6 8 10 14 18 20 22 25 25 23 21 19 17 14 17 19 19 17 16 15 16 15 14
5 5 6 5 6 7 7 8 8 8 6 10 13 11 14 10 3 1 4 5 7 10 12 15 17 19 25 27 28 27 24 22 19 18 15 17 18 20 19 17 17 14 12
4 6 7 9 11 12 13 12 10 9 9 12 12 15 14 5 2 1 4 6 9 12 14 17 19 22 22 24 26 27 24 23 22 20 18 17 17 18 21 21 19 15 14
7 9 12 16 15 12 10 8 7 7 7 8 9 12 6 8 10 7 8 9 13 15 18 22 22 22 22 22 23 25 24 22 23 22 20 19 18 18 20 23 20 17 15
15 15 15 16 13 12 6 4 5 7 10 8 6 5 5 5 14 11 16 15 19 21 21 20 21 21 21 20 20 21 21 24 25 24 22 20 19 18 18 23 22 19 17
14 15 16 16 12 7 1 3 6 8 8 9 9 6 7 11 7 9 15 19 18 21 20 18 21 20 21 22 21 23 26 27 26 25 22 21 20 19 21 21 21 20 18
19 18 16 17 12 4 0 2 4 6 6 6 5 7 8 10 10 10 11 16 19 17 17 19 16 19 20 23 22 22 28 29 28 25 21 19 19 18 19 23 19 18 17
22 21 19 15 9 4 1 2 4 4 1 2 3 4 7 9 10 10 10 16 20 21 20 20 19 19 21 23 23 24 26 26 26 24 20 16 16 13 16 16 18 17 18
20 19 20 12 7 4 4 4 3 5 3 3 4 6 7 9 10 11 12 16 16 26 23 21 22 22 23 24 23 24 24 25 21 17 18 18 16 12 8 14 14 15 16
20 22 14 11 7 3 3 6 8 6 5 6 8 8 9 12 10 10 10 13 13 22 28 28 25 24 24 24 28 25 21 22 19 15 16 16 20 17 12 8 14 13 15
22 16 9 10 5 4 9 7 9 9 8 9 10 10 11 12 11 10 10 11 15 14 16 31 31 27 30 30 28 25 22 18 19 14 13 12 13 20 18 18 13 12 11
19 10 10 9 8 13 7 10 9 9 11 11 12 11 12 10 10 11 14 16 17 21 15 28 31 30 29 28 27 27 23 20 16 17 11 10 10 12 14 20 19 15 16
17 10 12 10 10 12 12 10 10 11 12 12 11 10 12 11 14 16 17 18 19 19 20 32 28 28 28 26 26 24 20 17 11 17 15 10 10 11 13 14 20 20 13
14 10 9 10 16 17 14 11 12 11 12 12 10 10 13 15 17 19 19 19 20 21 23 28 27 25 24 23 24 23 16 14 14 14 16 10 10 10 10 14 17 15 16
14 12 16 19 16 14 11 11 13 12 10 9 10 12 15 17 20 21 21 22 21 21 20 23 28 27 24 22 22 20 21 16 14 12 12 12 10 9 9 9 14 17 18
15 14 15 17 16 12 8 11 10 7 8 9 12 14 16 18 19 21 22 21 21 19 23 24 24 24 23 21 18 18 20 15 14 10 12 10 7 8 8 6 15 15 16
11 12 12 8 6 7 6 4 5 7 11 14 15 16 16 16 19 19 20 21 22 22 21 20 22 21 20 18 15 12 15 16 13 10 10 9 6 4 6 8 5 17 7
11 12 10 8 5 5 5 7 8 9 12 13 15 16 17 16 14 17 17 17 18 21 22 20 21 18 21 18 17 11 11 13 9 2 4 6 5 6 4 5 7 1 16
12 10 10 7 5 4 5 9 13 9 11 13 14 15 15 15 15 15 16 19 19 17 19 22 21 19 19 17 18 16 12 12 13 11 10 11 7 8 7 4 2 3 9
12 10 8 6 3 1 6 11 15 10 11 12 13 13 15 15 14 17 21 20 18 18 17 18 18 19 19 19 17 16 17 16 17 16 11 12 10 10 8 7 9 6 3
9 7 5 5 2 1 7 11 12 9 11 13 13 13 14 14 15 19 20 20 19 20 15 16 18 18 19 19 18 18 18 14 13 16 14 13 15 14 11 10 11 14 13
10 7 6 5 3 4 8 10 10 9 11 14 13 13 12 13 17 20 19 18 19 19 20 19 16 14 15 16 16 16 18 17 11 10 10 10 10 7 5 5 9 10 13

GFSMA_925_spd_012.txt.gz
Wind_Speed
6 9 7 5 4 4 5 8 9 11 11 11 10 8 8 9 8 9 8 11 10 10 10 10 10 11 14 15 11 11 10 10 14 13 14 12 12 14 13 13 13 15 16
11 12 6 5 6 6 7 9 10 11 12 11 11 9 9 9 10 10 10 10 12 10 9 10 12 12 13 14 15 15 14 12 11 14 14 14 15 14 14 14 14 14 14
8 6 5 5 6 6 7 9 10 10 11 11 12 13 13 12 12 12 11 10 10 12 13 10 10 13 13 14 16 16 15 15 15 14 17 15 16 16 15 15 15 15 15
5 3 3 3 4 7 8 9 9 12 12 13 13 15 16 15 15 13 11 10 10 10 11 15 14 14 16 15 16 17 18 17 16 17 15 16 16 18 17 16 15 15 14
1 0 1 3 6 7 7 8 9 10 13 14 15 18 18 19 19 18 13 10 7 7 10 13 17 16 20 18 19 18 17 19 19 17 18 18 17 17 20 18 17 16 14
3 3 4 5 6 7 9 10 12 14 14 14 18 20 19 21 20 17 12 10 9 10 11 13 16 16 19 19 22 21 20 20 19 20 19 20 20 18 15 21 21 17 14
4 4 4 7 9 11 12 12 14 17 16 15 20 19 21 22 11 13 13 14 14 14 16 17 19 19 19 21 20 21 24 22 19 20 22 22 22 21 20 19 24 21 17
5 6 7 9 11 13 15 13 12 13 15 12 15 20 10 16 18 9 15 18 17 17 20 20 20 19 19 19 19 21 19 21 24 22 23 24 25 24 23 22 22 25 22
6 8 9 10 12 14 16 12 9 9 13 14 11 13 9 10 18 21 16 19 17 20 19 19 18 19 19 19 19 19 19 22 25 27 25 25 25 26 25 24 23 27 27
9 11 12 13 14 15 13 10 8 8 9 13 14 15 13 15 10 11 20 20 22 20 21 20 20 22 21 21 21 19 18 25 27 27 27 26 26 25 27 27 26 26 30
14 15 16 16 16 14 10 7 7 7 11 12 16 15 14 14 14 13 11 18 21 20 19 18 21 22 22 22 23 23 25 24 25 27 29 27 26 25 25 28 28 28 30
18 18 19 18 16 12 9 7 6 8 12 12 10 9 11 12 14 14 12 17 20 23 20 21 20 22 22 24 25 24 23 26 27 27 27 24 24 25 25 25 28 30 32
19 20 19 17 14 10 8 7 6 10 9 9 8 11 11 12 14 15 18 19 18 26 26 24 24 24 25 26 27 23 27 30 25 28 26 21 22 23 25 24 23 26 30
18 19 18 14 10 8 6 7 11 8 8 9 10 12 14 15 16 17 18 19 14 24 27 28 28 27 26 26 29 30 29 25 23 23 23 20 19 21 23 25 19 14 20
18 18 15 10 8 6 9 11 10 9 8 10 12 14 16 17 17 17 18 19 21 15 16 31 32 29 27 27 27 28 28 26 24 22 20 19 17 17 15 19 19 13 12
18 17 14 11 9 9 11 12 12 9 9 12 13 14 17 18 18 19 20 21 23 26 16 31 32 30 29 29 27 26 26 26 25 21 14 14 14 15 15 13 16 21 18
17 16 14 13 12 15 16 19 15 11 12 13 15 17 18 18 19 21 23 24 26 26 23 34 32 30 28 27 26 26 26 23 23 17 11 12 14 14 15 14 12 18 21
17 15 14 12 14 18 22 17 12 12 14 16 17 17 18 20 22 24 25 24 26 27 26 30 30 29 28 29 27 26 26 23 20 15 13 12 16 14 13 14 12 15 17
16 14 14 15 17 18 16 13 12 13 14 14 14 16 19 21 24 23 23 24 23 24 22 26 29 28 28 25 25 23 23 25 23 15 14 11 10 16 15 14 13 12 16
14 13 13 13 15 14 11 9 9 9 9 12 15 17 19 19 19 20 23 22 21 21 22 25 27 25 24 23 22 20 19 19 21 19 12 13 12 13 14 14 13 11 15
14 12 11 9 8 5 3 3 7 9 12 15 16 17 16 16 16 15 16 19 19 20 20 22 23 23 23 20 19 20 19 18 20 13 14 13 13 10 6 9 11 9 10
13 12 13 9 9 6 8 7 6 10 12 15 15 15 15 14 13 17 14 16 17 21 23 23 24 21 24 21 19 18 17 16 9 10 11 12 8 9 8 5 11 10 9
13 14 13 10 10 5 6 7 9 10 12 13 13 14 15 14 15 15 17 18 20 18 20 22 24 24 24 22 19 19 19 17 16 16 8 11 9 8 8 6 7 10 6
13 11 11 9 7 5 5 7 11 9 11 11 12 12 14 15 14 14 19 22 21 20 19 20 20 23 22 21 19 19 21 20 20 18 14 13 13 10 9 8 9 7 6
12 12 9 7 7 6 6 8 9 9 10 11 11 11 12 13 13 15 20 21 21 20 17 16 20 21 21 20 19 19 19 20 17 17 16 16 15 12 12 12 10 10 7
11 10 8 7 8 6 6 7 8 8 9 11 11 12 10 10 14 18 18 18 19 19 22 22 20 18 16 15 13 16 18 19 17 14 12 13 11 11 9 12 10 10 10

GFSMA_925_spd_015.txt.gz
Wind_Speed
1 1 6 10 11 12 13 13 15 14 16 16 15 14 14 15 14 14 13 10 8 10 10 9 10 11 12 12 12 12 11 11 11 11 11 13 13 14 14 15 14 14 14
9 16 10 9 9 11 12 14 13 15 15 17 16 15 15 15 15 14 15 13 10 10 12 12 13 10 11 12 13 14 14 14 15 14 13 14 15 15 17 16 16 16 15
4 4 2 5 9 9 11 13 14 15 17 18 18 18 19 19 18 17 16 17 8 8 8 12 12 14 14 13 14 14 14 15 15 16 16 14 13 15 18 19 18 18 17
1 2 4 3 5 8 10 12 14 14 17 19 20 19 20 21 20 19 20 16 11 16 9 10 16 19 13 15 16 16 16 15 17 18 16 18 17 15 14 18 21 19 19
2 1 2 4 7 10 11 12 14 16 19 21 22 21 23 25 22 21 22 21 9 7 11 20 18 20 11 17 17 19 17 17 17 16 18 18 19 19 18 15 18 22 21
2 1 2 5 8 11 13 15 17 18 21 23 23 21 26 23 24 24 17 13 14 8 12 14 19 19 21 18 21 20 17 19 17 16 18 21 21 21 22 21 19 19 24
2 5 6 9 11 13 14 16 19 21 21 21 21 20 21 25 22 16 20 16 11 16 14 15 19 19 21 21 18 16 21 17 16 20 20 21 24 24 22 23 23 22 21
5 7 9 11 12 15 17 18 18 19 18 18 19 20 11 19 22 19 21 20 24 18 20 19 19 20 18 20 20 21 16 14 18 22 24 23 23 25 27 24 25 24 23
7 9 11 13 15 17 19 19 17 15 18 17 17 17 11 11 20 22 23 24 24 21 19 20 21 20 20 21 20 20 21 23 23 23 23 25 26 25 26 28 25 26 26
9 12 14 15 16 18 18 18 16 12 16 16 18 18 20 21 12 13 20 21 22 23 22 23 21 20 22 22 22 21 15 23 23 26 27 25 27 27 26 27 28 26 28
11 14 15 16 17 18 18 15 14 14 14 17 18 18 18 18 18 17 13 19 23 23 22 21 19 22 23 23 23 24 26 28 20 24 28 27 27 25 26 26 27 28 27
11 12 14 16 17 17 15 14 12 13 12 15 16 12 15 16 17 18 13 20 21 25 22 22 23 24 24 25 26 26 26 24 30 31 27 25 27 24 24 25 26 27 28
11 13 16 17 17 16 13 11 11 11 13 13 11 13 15 15 16 17 19 21 17 25 25 24 24 26 27 27 27 26 29 34 33 30 24 23 26 26 23 24 24 25 27
11 14 15 16 15 12 7 7 13 14 12 13 11 13 14 15 16 17 19 20 12 21 25 27 27 27 27 28 27 28 29 30 30 30 27 26 26 27 22 22 22 23 23
12 14 15 15 13 10 8 12 12 13 15 11 11 14 14 14 17 19 21 21 19 13 13 27 27 28 27 28 28 27 28 30 29 30 34 26 27 26 20 20 21 21 21
12 14 15 15 15 12 14 13 15 19 14 14 10 13 16 16 18 19 22 22 24 25 14 27 28 29 28 30 29 29 30 31 32 33 29 28 24 23 18 19 20 19 19
13 14 15 15 15 15 15 18 22 20 15 17 11 14 17 18 20 21 24 25 25 25 21 28 30 29 29 29 29 30 30 30 30 30 21 20 22 16 13 17 19 17 18
13 15 14 14 15 14 17 19 17 16 13 14 15 17 17 20 22 25 25 26 26 27 27 27 31 28 28 28 29 28 27 26 27 29 23 19 20 18 12 17 18 17 17
14 14 14 14 16 14 17 15 15 14 13 14 15 15 18 21 24 24 22 23 25 26 25 22 26 25 26 26 26 26 24 24 25 26 25 21 21 10 14 19 18 17 14
15 14 13 12 13 13 13 12 10 10 12 14 15 16 20 20 19 17 21 20 21 22 22 22 24 25 25 24 25 24 22 22 23 22 21 18 16 15 15 14 13 17 11
14 14 14 10 11 11 7 7 10 13 16 16 16 18 18 15 17 13 15 18 18 19 21 22 22 23 24 23 23 24 22 21 22 23 17 19 13 15 9 11 9 11 13
14 15 14 11 10 11 8 10 8 9 13 15 17 16 16 15 11 18 15 12 17 20 22 21 23 22 24 23 23 23 21 19 12 16 14 20 13 13 10 7 7 11 16
15 15 14 12 11 7 8 6 6 9 12 14 14 14 14 13 15 15 16 19 21 23 25 26 24 23 24 23 23 22 20 20 20 20 14 18 14 12 11 5 8 12 14
15 14 12 10 11 6 9 7 7 9 12 12 12 12 13 12 11 13 17 19 21 21 21 17 21 24 25 26 26 25 24 23 23 24 20 16 18 14 12 11 8 13 12
15 14 12 9 11 7 9 8 7 9 11 11 11 11 10 12 12 15 16 19 21 20 19 19 20 22 24 26 24 20 19 18 16 21 18 19 19 12 14 14 12 13 11
14 12 11 9 10 6 10 11 7 7 10 10 11 10 10 7 12 13 15 17 20 20 23 23 21 20 18 18 17 17 18 17 17 17 13 10 16 14 13 16 16 13 10

GFSMA_925_spd_018.txt.gz
Wind_Speed
2 2 9 10 8 5 7 9 12 16 17 16 17 14 14 14 14 13 15 17 12 11 8 6 8 11 13 15 16 17 17 17 17 16 16 13 14 15 14 15 14 13 14
6 5 4 2 4 8 11 11 13 15 15 18 19 18 18 18 18 17 10 12 18 8 4 6 11 12 14 15 17 18 18 19 19 17 16 16 16 17 17 15 17 16 14
2 4 5 8 10 11 12 12 14 15 15 17 20 21 20 18 19 20 18 16 18 9 2 4 11 15 13 15 16 18 19 18 18 20 19 17 16 17 18 18 16 17 18
6 6 8 9 6 10 11 11 12 13 17 19 20 22 18 16 21 24 20 15 14 5 1 4 11 15 15 13 16 19 20 18 18 18 18 21 21 19 19 20 20 18 17
6 6 3 6 8 10 11 11 14 17 18 21 22 23 17 20 19 23 23 21 22 11 9 11 12 14 8 13 15 20 20 17 20 17 18 22 24 24 22 21 22 21 21
6 2 6 7 7 10 12 14 16 16 16 18 21 21 19 13 19 23 23 16 11 5 10 6 14 10 14 16 17 16 17 22 19 17 20 23 25 26 26 23 24 24 23
5 6 4 7 10 9 13 14 15 15 16 17 20 17 20 20 15 20 17 22 21 19 19 7 10 11 13 12 13 17 20 18 16 20 22 25 26 27 27 27 24 25 25
5 4 6 7 9 11 14 14 16 18 14 14 17 18 5 11 15 21 23 21 18 20 15 18 17 15 9 12 12 18 17 14 18 20 22 25 28 28 29 29 27 25 25
4 5 8 8 11 11 13 15 16 16 10 12 15 11 5 4 14 14 18 21 22 21 20 17 17 13 14 14 18 14 19 22 18 22 25 27 29 29 29 30 29 26 26
5 7 10 11 11 12 14 15 14 15 13 13 15 13 17 18 4 7 7 17 22 20 20 20 16 14 17 21 20 19 20 17 20 16 24 28 32 29 29 29 29 29 26
8 8 9 12 13 15 16 15 15 13 11 11 12 16 15 15 15 10 7 12 20 21 24 17 19 21 21 19 21 20 21 20 20 22 27 32 30 30 29 28 28 29 28
7 8 10 13 13 14 15 13 10 8 9 11 14 12 12 13 13 12 5 12 15 20 19 20 19 18 20 23 22 24 25 28 30 29 29 32 31 26 29 29 28 28 28
6 8 12 12 13 13 13 10 8 9 12 13 12 13 11 12 15 13 15 16 11 20 21 21 20 23 25 25 25 23 27 27 26 26 28 30 29 28 27 30 28 27 27
6 10 10 12 14 13 10 12 13 10 14 12 12 13 11 10 13 13 14 15 7 16 19 23 22 23 23 22 21 23 24 25 26 28 30 30 32 31 29 28 28 26 25
6 9 11 13 14 16 11 11 10 11 12 15 12 10 14 9 9 16 16 19 13 8 9 22 24 23 20 21 22 26 28 27 29 31 34 34 35 32 26 24 26 26 24
8 10 12 13 14 15 14 11 13 13 18 16 8 9 13 11 10 15 15 19 22 21 11 22 22 22 20 25 24 27 30 32 33 32 33 32 33 29 24 24 25 23 24
8 10 12 13 14 14 15 13 16 18 18 15 10 12 12 13 13 14 16 21 21 21 17 23 26 23 27 26 29 28 29 30 30 28 27 30 29 22 24 23 21 19 20
9 11 13 14 15 14 12 11 14 15 16 12 8 11 10 10 16 18 19 17 19 22 23 22 24 24 25 25 25 28 27 26 29 27 29 29 27 25 22 24 24 20 18
9 11 14 16 9 13 15 14 17 13 8 9 7 10 13 14 16 14 14 19 21 20 21 22 24 23 22 24 27 25 26 25 25 24 26 25 25 24 24 21 18 18 18
8 12 14 17 10 9 10 10 7 8 10 12 13 12 15 12 12 14 16 15 16 18 19 20 21 22 22 24 22 23 23 25 25 27 23 23 23 24 17 24 21 18 15
12 15 14 16 11 9 9 6 7 11 9 10 12 13 12 14 16 16 14 15 14 16 19 19 20 21 21 19 20 23 21 23 28 24 21 26 23 24 16 15 12 9 13
15 13 12 16 13 9 11 9 8 6 7 11 13 14 13 13 7 12 11 8 13 19 23 22 23 21 22 19 19 20 21 20 12 20 26 26 22 24 21 14 8 8 13
14 12 13 13 10 8 10 10 7 6 7 10 13 12 12 11 12 13 14 18 19 19 22 24 21 17 19 18 21 22 22 22 22 26 25 24 25 26 22 14 9 9 16
13 13 14 13 9 8 8 10 7 6 6 10 11 12 11 9 12 13 17 20 17 19 20 20 18 21 21 25 26 23 25 25 25 24 22 19 22 25 25 19 12 13 16
15 14 14 10 5 8 10 9 7 5 6 9 10 11 12 10 12 14 18 16 18 19 18 21 24 21 21 23 24 24 23 17 17 20 22 18 22 24 22 21 15 14 15
16 15 11 4 4 5 8 8 9 7 7 9 9 10 13 8 10 13 14 16 18 18 24 25 21 22 21 21 19 17 20 18 16 13 12 9 17 17 7 11 9 13 17

GFSMA_925_spd_021.txt.gz
Wind_Speed
5 4 2 7 4 5 9 10 10 11 9 9 10 13 14 15 13 15 13 10 10 11 1 6 8 9 10 10 12 15 18 19 18 19 19 19 19 19 18 15 15 15 16
4 3 4 5 5 9 8 6 8 9 10 11 12 15 16 17 11 10 17 16 13 11 4 4 5 6 7 9 10 13 16 17 18 19 18 18 20 23 22 21 18 17 16
4 7 9 9 8 9 7 6 5 6 7 10 11 13 17 11 12 14 14 20 11 7 4 4 5 5 7 7 9 11 15 15 15 19 18 19 21 22 25 25 23 20 19
12 10 7 6 5 6 7 5 7 9 12 13 13 14 12 19 17 16 18 20 17 9 8 3 5 6 7 10 10 11 13 12 16 18 16 19 23 24 24 26 26 23 21
9 8 3 5 5 5 6 9 11 13 14 13 14 13 16 12 14 14 15 20 19 2 2 3 4 5 9 9 10 12 13 16 20 16 16 19 23 25 26 25 27 26 24
7 9 9 7 6 5 8 11 13 11 13 15 14 13 11 14 11 13 16 18 17 17 8 9 10 10 13 10 11 10 12 16 13 14 18 20 22 24 27 27 26 27 27
7 3 2 5 8 9 11 12 14 15 16 11 10 16 16 9 13 14 15 16 17 16 14 14 10 11 8 8 8 7 12 10 10 13 17 22 24 26 27 28 28 27 28
6 5 6 6 8 11 10 11 14 16 11 8 9 11 3 10 10 17 16 17 14 16 18 19 15 8 8 8 8 11 9 12 15 18 18 19 24 28 30 29 28 28 28
6 4 2 2 4 6 9 12 12 8 7 9 8 5 3 1 4 3 10 11 16 17 17 22 13 10 14 15 14 13 12 13 6 10 16 19 23 28 32 31 29 28 28
6 3 2 5 8 12 13 13 14 14 12 5 5 5 9 7 1 4 9 9 16 20 21 20 18 18 14 12 15 14 13 10 16 13 18 25 28 29 30 33 32 29 28
2 1 5 8 12 11 12 13 13 5 3 5 8 10 10 7 10 2 2 9 15 15 18 16 21 19 18 21 21 16 18 17 19 19 23 25 29 31 32 30 30 31 30
2 2 5 9 9 11 12 11 4 6 6 8 11 6 7 4 3 3 2 4 11 17 14 17 19 20 24 24 22 23 20 18 18 17 22 25 29 29 30 29 30 31 31
1 4 8 9 10 12 12 9 10 11 11 12 8 9 9 9 5 6 6 8 4 17 15 17 20 20 22 24 26 16 18 21 24 22 22 26 28 30 31 31 30 32 32
1 5 6 9 10 11 12 13 13 11 13 9 10 10 10 8 12 7 5 6 3 4 11 18 23 24 23 14 15 20 23 26 29 29 26 28 30 30 30 30 30 28 29
1 4 7 9 10 12 11 12 11 10 11 11 10 11 12 12 10 7 8 9 6 3 5 17 19 16 16 21 25 24 27 34 28 29 30 27 27 28 28 28 30 26 27
4 5 7 9 12 13 11 10 7 7 9 15 12 10 5 7 10 11 9 10 12 16 3 13 20 21 20 25 26 27 27 26 29 27 27 28 29 29 27 26 21 23 25
4 5 8 10 13 15 10 7 8 11 11 13 7 6 7 10 10 9 12 8 7 13 8 17 22 22 24 24 24 24 26 27 24 26 27 27 28 26 27 25 26 28 28
5 6 8 11 12 7 10 14 13 13 10 2 2 5 4 7 10 9 9 11 13 18 14 14 22 24 24 24 27 27 25 25 25 24 25 25 24 24 26 28 27 27 26
8 9 9 11 14 12 13 9 6 4 4 5 5 6 7 9 8 9 10 15 16 17 17 19 22 24 26 27 28 25 25 24 24 23 25 24 24 24 24 28 24 23 21
10 9 13 13 16 15 11 9 8 4 5 6 8 6 8 6 9 13 14 13 14 14 16 19 20 21 22 25 25 22 20 21 26 28 22 17 23 23 27 25 18 20 23
10 15 16 17 14 14 12 11 10 10 8 7 7 9 10 11 12 12 9 11 11 15 18 21 19 21 21 20 18 16 20 23 27 22 25 26 25 29 25 24 18 18 14
16 19 18 15 15 14 13 13 12 10 6 6 6 10 11 10 8 5 5 6 10 15 18 17 18 18 18 17 17 20 23 21 13 17 20 28 24 31 25 22 18 12 6
17 15 15 13 13 12 13 11 10 8 7 6 6 10 10 9 11 9 13 17 19 18 14 18 21 18 20 22 21 23 22 19 21 30 23 24 26 27 26 22 23 21 14
17 14 14 14 15 14 10 10 11 9 7 6 7 10 10 11 13 14 17 17 19 17 15 15 20 26 22 21 22 24 27 26 28 31 21 14 23 25 27 23 18 18 16
14 14 15 16 12 11 10 12 11 9 7 8 9 10 9 10 12 11 14 18 20 19 14 15 16 18 19 19 19 21 19 15 15 23 24 16 13 22 28 14 11 13 14
17 17 16 11 10 9 10 12 12 10 10 8 9 9 10 11 10 12 16 17 17 16 16 18 19 20 20 17 16 17 19 18 18 14 8 7 19 13 7 7 19 16 17

GFSMA_925_spd_024.txt.gz
Wind_Speed
11 9 10 10 9 5 6 5 4 4 4 4 5 8 12 13 9 10 9 6 5 4 2 5 6 6 5 5 7 9 10 11 13 15 16 17 20 21 23 24 24 24 23
9 8 9 10 8 7 6 4 4 4 5 6 8 13 13 13 11 11 10 8 5 6 6 7 6 5 5 7 8 10 11 10 11 13 13 14 18 21 23 23 24 25 24
8 9 11 11 9 7 6 5 4 4 6 9 13 14 9 13 12 12 14 13 5 5 7 7 5 5 5 5 7 8 8 10 12 13 10 13 17 19 22 23 24 24 25
14 13 12 10 7 7 5 4 6 8 10 10 9 7 10 7 10 11 14 15 3 4 7 4 6 6 6 6 6 6 7 9 11 11 10 14 16 18 20 22 24 24 24
15 13 10 10 5 4 3 6 9 11 11 10 8 5 3 9 9 11 15 17 16 5 4 6 4 5 6 6 7 7 8 11 12 10 12 15 16 18 20 22 23 25 25
13 11 9 6 3 1 5 9 11 10 11 11 6 4 5 7 9 12 15 15 15 13 11 9 7 8 9 9 6 7 10 13 7 10 11 14 17 19 21 23 25 25 25
12 8 4 1 2 7 9 10 9 11 12 8 5 9 7 3 9 12 12 10 12 12 10 11 9 5 7 7 8 8 10 11 9 11 13 14 16 20 22 24 26 26 26
8 5 4 4 5 6 6 6 9 8 4 7 5 3 2 5 5 12 8 10 11 10 12 14 9 9 10 10 8 9 9 9 10 11 13 14 16 22 26 28 29 28 27
6 4 3 2 0 3 5 6 6 5 4 1 4 1 1 2 2 1 3 5 6 9 12 11 10 12 10 8 11 11 10 9 7 9 12 16 19 23 28 31 32 32 30
7 7 5 1 2 5 6 7 8 7 2 2 2 3 0 4 3 2 1 0 5 7 10 10 11 12 10 15 17 16 14 13 13 10 14 19 22 25 27 30 32 31 29
9 6 2 2 6 6 7 8 6 3 3 2 2 5 7 5 5 3 2 4 4 8 5 6 13 17 19 22 20 20 14 8 9 10 14 20 24 27 29 29 31 32 31
7 3 3 7 8 7 9 7 3 5 7 7 7 5 3 3 5 4 3 5 5 3 5 9 12 15 18 21 21 21 13 11 13 13 17 20 24 29 32 32 32 32 32
7 4 6 6 6 7 7 5 6 8 8 8 5 5 7 9 7 6 5 4 2 4 3 14 16 18 16 16 17 13 16 21 23 22 22 24 28 31 32 33 30 30 31
5 3 3 6 7 8 8 7 9 10 6 5 6 9 9 11 9 7 3 3 2 3 4 8 17 9 11 12 20 22 23 27 30 27 24 24 25 24 25 24 25 26 28
3 2 4 6 8 10 10 10 9 10 10 10 12 14 13 9 7 3 8 7 3 2 3 8 6 12 20 20 25 26 27 28 23 23 22 20 21 22 24 25 24 26 27
2 3 4 7 9 11 9 12 7 8 9 11 11 11 11 8 8 6 6 5 6 3 3 5 15 23 24 26 24 21 24 23 22 19 21 22 22 21 22 21 23 24 26
5 7 5 6 9 10 11 6 7 11 12 12 9 6 8 8 9 7 8 10 7 7 6 12 22 23 25 26 25 24 23 22 20 23 21 21 24 23 20 22 22 26 26
8 9 6 7 9 10 10 10 10 10 12 7 5 5 6 5 8 10 9 8 9 10 9 13 20 25 26 24 25 25 24 21 24 22 21 23 24 21 20 20 23 25 26
11 10 9 9 9 10 13 15 13 11 6 5 4 5 6 7 10 9 9 10 10 10 10 13 18 25 25 25 27 26 23 26 26 23 26 25 22 19 20 22 22 25 23
12 11 10 13 13 13 16 16 15 11 8 7 6 5 6 6 8 9 10 8 9 11 14 19 20 20 19 25 23 21 19 23 27 30 26 22 22 22 23 23 21 24 17
4 9 14 17 17 16 16 19 17 14 12 8 6 7 8 10 10 9 8 8 7 10 15 19 16 17 17 17 16 20 22 24 28 24 20 19 27 23 23 23 20 22 20
8 14 18 21 19 19 17 19 17 15 12 10 9 10 11 12 12 10 9 8 9 12 16 15 15 15 14 20 22 22 23 18 11 17 13 31 26 23 22 21 19 21 23
12 16 18 17 16 15 16 18 17 14 13 12 11 10 10 11 12 11 10 11 12 15 15 15 18 16 21 23 22 22 20 19 21 31 20 20 25 24 20 21 23 18 20
15 16 15 15 17 16 16 18 16 15 14 13 11 11 12 12 12 12 12 14 15 18 16 13 14 20 20 22 22 22 23 23 23 26 17 10 24 21 24 24 16 11 15
12 13 15 17 18 18 15 17 18 17 15 13 11 12 13 13 12 12 12 14 19 20 12 11 12 16 18 17 15 18 17 17 18 22 22 13 16 19 21 13 20 11 16
12 15 17 16 15 14 14 16 18 18 16 15 13 12 13 14 13 11 12 15 18 16 13 15 16 17 17 18 16 14 15 16 16 14 12 10 17 12 7 8 22 22 23

GFSMA_925_spd_027.txt.gz
Wind_Speed
16 15 13 12 10 9 8 8 8 7 6 7 9 11 12 11 9 8 6 4 3 3 2 4 4 4 6 8 9 10 10 11 12 12 11 13 15 17 20 21 22 23 24
14 14 13 12 10 9 9 7 6 5 6 7 9 12 11 11 10 9 9 7 4 2 2 3 3 3 4 6 8 9 9 11 13 11 9 11 14 16 18 21 22 23 23
11 13 13 12 12 10 8 6 5 5 5 8 11 11 12 9 9 11 12 10 2 2 3 4 4 4 4 4 5 7 6 8 9 8 8 11 13 15 17 19 21 22 23
12 16 14 12 11 8 5 3 3 5 7 9 8 7 7 8 8 11 13 10 5 5 6 5 7 5 4 5 5 5 6 8 11 9 8 11 13 15 17 19 19 21 23
15 15 12 11 9 6 4 3 4 7 9 9 5 5 6 7 9 11 13 12 11 7 5 4 3 4 4 4 5 7 9 11 13 9 12 14 15 16 18 18 20 21 23
15 13 12 10 6 3 1 4 7 9 11 9 4 4 5 5 8 9 10 9 8 5 5 3 1 3 5 7 7 8 10 13 14 10 13 14 15 15 17 19 21 22 24
15 12 10 8 4 1 5 7 10 11 9 7 3 5 1 8 6 6 6 7 7 6 3 5 5 3 3 6 8 10 12 13 14 15 15 15 15 17 18 21 23 24 25
13 9 6 3 4 6 7 10 10 7 4 4 1 2 2 2 1 4 6 4 4 3 5 3 2 3 5 5 7 9 11 12 14 15 15 17 17 19 22 24 26 27 27
8 5 4 4 6 8 11 10 7 3 3 1 2 1 1 3 4 6 3 3 1 5 6 2 3 4 4 8 11 14 14 15 15 16 18 20 21 23 24 26 28 28 29
9 6 5 5 7 9 9 8 8 5 3 3 2 1 3 3 3 3 7 6 4 7 7 9 9 8 9 12 14 14 16 15 16 16 18 19 22 24 25 27 30 30 30
9 8 6 5 7 8 7 6 5 2 1 0 2 4 6 8 9 5 3 5 6 9 8 8 9 10 13 16 20 22 16 14 13 11 15 18 22 25 28 31 34 35 33
11 7 3 5 8 8 6 3 2 1 4 3 5 6 6 5 5 7 4 8 8 9 9 10 10 12 14 15 15 13 12 14 14 15 18 22 26 29 33 34 34 35 34
12 8 4 6 10 5 3 4 3 4 4 4 4 4 6 9 9 9 9 7 7 6 8 11 9 13 9 8 12 15 18 22 25 22 23 25 28 32 32 30 28 28 29
10 6 1 9 2 2 3 6 6 6 5 5 7 8 10 12 10 10 8 3 2 3 6 9 10 8 8 20 21 24 27 27 27 25 24 24 24 23 25 26 26 27 28
10 5 2 4 3 3 4 4 4 6 7 8 10 12 13 13 11 7 6 7 5 2 3 5 5 12 21 24 23 21 21 23 23 22 21 20 21 23 23 24 24 25 25
10 12 8 7 4 4 6 7 7 5 7 11 12 12 14 10 9 9 8 9 7 7 3 7 11 19 21 21 22 18 20 19 19 16 20 22 21 22 23 24 23 24 25
15 12 9 6 5 6 7 6 5 7 9 10 10 9 8 9 11 13 12 12 12 9 7 16 18 21 22 24 23 20 21 21 19 22 21 21 23 23 23 22 22 22 23
14 12 8 7 7 7 8 8 10 12 11 12 10 8 8 8 10 12 13 12 11 11 12 15 20 22 25 25 22 22 22 20 21 24 24 27 28 27 25 20 21 22 23
16 14 10 8 9 10 10 10 14 16 15 13 12 11 10 12 13 13 12 12 13 12 12 14 18 24 25 23 23 21 22 24 25 24 27 24 20 21 22 24 24 24 24
18 15 11 11 12 14 14 14 16 18 16 13 14 14 13 12 12 12 13 14 13 12 13 15 21 20 18 21 17 18 24 22 27 28 22 18 22 25 24 22 22 23 22
14 10 9 11 16 17 18 19 18 20 19 16 15 13 13 12 11 12 13 13 12 11 13 16 19 16 15 16 16 21 20 25 28 18 20 26 28 27 24 21 20 21 20
7 5 8 15 16 17 17 18 18 22 21 18 17 15 14 13 13 14 13 12 11 11 14 15 16 13 14 18 21 20 22 17 8 14 20 29 28 28 24 21 21 21 22
1 9 13 18 17 15 15 17 18 23 21 19 18 17 15 14 14 14 13 13 13 13 13 16 17 15 16 18 21 22 20 20 18 25 22 23 26 28 26 24 21 20 20
9 11 14 13 14 16 17 17 17 21 21 20 19 17 15 14 15 15 16 16 15 14 17 14 12 13 15 18 19 20 22 22 22 21 16 14 25 29 29 27 12 12 15
8 12 14 17 18 21 19 18 18 21 22 21 19 17 16 15 15 14 16 16 15 17 14 9 9 12 14 16 18 19 20 16 18 21 21 14 19 26 28 23 9 15 16
13 14 17 18 18 18 15 15 18 22 23 22 21 20 18 17 15 15 17 16 16 17 11 11 12 14 16 18 19 16 17 15 14 13 7 15 23 15 7 13 9 18 14

GFSMA_925_spd_030.txt.gz
Wind_Speed
14 13 14 13 11 9 9 10 10 9 7 7 9 9 9 8 7 6 5 5 3 3 1 2 4 6 8 9 10 11 11 12 12 9 11 13 15 16 18 19 21 22 23
15 14 13 12 11 10 9 8 7 7 7 8 8 10 9 6 6 6 7 6 3 2 2 4 5 5 4 6 8 7 8 9 12 9 9 10 12 14 17 19 21 21 22
13 13 12 12 11 11 9 7 6 6 6 8 8 8 6 6 6 6 6 4 1 2 5 7 6 5 4 4 5 6 7 8 9 10 8 10 13 14 15 17 19 20 21
13 13 13 13 13 10 7 5 4 4 6 6 4 4 5 6 7 6 4 3 3 5 8 9 8 6 4 5 5 7 9 10 10 12 10 12 14 16 17 18 18 18 20
15 15 15 14 11 8 6 4 3 4 5 3 3 3 4 5 7 8 10 10 7 7 6 5 4 1 2 4 5 6 8 10 12 13 10 14 14 15 17 20 20 20 20
18 16 14 13 9 6 4 2 3 5 5 4 3 3 2 6 7 7 7 6 6 4 2 1 2 3 2 3 5 7 9 12 13 13 14 16 14 17 19 19 20 21 23
16 15 13 10 7 4 4 2 3 5 6 5 3 3 3 5 5 5 6 4 3 2 2 4 5 3 4 5 5 7 9 11 14 16 17 18 19 20 20 21 22 23 24
16 14 11 8 7 5 4 3 4 6 4 4 2 3 3 2 0 3 4 3 1 1 2 3 1 3 3 3 5 7 10 12 16 17 18 18 19 21 23 23 24 25 26
15 11 10 8 7 4 2 4 6 6 5 4 3 3 2 2 4 5 5 3 3 3 3 4 4 4 4 5 9 11 13 15 16 17 18 19 21 22 22 23 25 26 27
15 12 10 8 5 4 5 8 9 8 6 3 1 0 2 3 2 3 4 7 8 7 8 10 10 6 6 10 11 14 14 14 15 15 17 19 21 23 24 25 27 29 31
15 13 11 6 4 6 7 9 8 7 4 2 2 3 5 7 8 4 3 6 10 10 15 13 11 9 9 13 14 15 13 16 17 14 15 18 21 24 27 29 31 32 35
18 14 10 7 5 9 5 6 4 2 0 2 5 5 5 4 4 7 5 9 8 12 14 14 12 10 13 14 10 12 16 18 20 20 21 23 25 28 31 32 34 33 33
21 17 11 4 3 5 5 3 2 4 4 4 5 5 6 9 11 11 11 7 6 6 7 11 16 13 16 12 14 22 25 27 29 26 25 26 27 27 28 28 27 28 29
24 18 12 4 2 6 2 3 4 6 7 6 7 9 10 12 14 14 12 6 2 4 6 13 12 14 14 15 25 26 26 25 25 24 24 24 23 23 25 25 26 27 28
23 19 8 6 3 4 3 4 5 8 9 9 10 11 13 13 15 14 12 11 8 2 2 8 9 9 13 22 24 24 24 24 23 21 21 20 21 23 23 24 25 26 27
23 17 10 9 8 5 3 7 9 10 12 11 11 12 12 12 11 11 11 12 13 14 4 9 10 14 17 21 21 22 22 22 23 22 20 22 23 23 23 24 25 27 27
24 13 14 13 9 7 5 7 10 11 12 11 10 12 12 10 11 12 13 13 13 14 11 12 14 17 21 22 24 21 21 22 21 20 20 23 24 25 26 27 28 26 26
18 17 16 14 11 10 8 9 10 12 14 14 13 11 12 12 13 13 14 15 16 15 14 16 19 19 22 24 23 22 22 21 24 24 23 25 24 22 20 21 23 25 26
22 21 19 15 12 10 9 12 13 14 16 17 17 15 14 14 15 16 16 16 16 15 15 16 18 18 22 23 24 23 22 25 23 20 21 18 17 21 22 23 24 26 27
23 21 18 14 10 10 12 15 17 19 20 20 19 18 16 18 18 17 16 15 16 16 14 15 17 20 19 22 20 16 22 21 25 24 16 18 25 25 24 22 21 21 22
20 17 14 11 8 12 18 21 23 24 24 22 20 20 19 19 18 16 16 15 15 15 14 13 17 16 16 16 13 18 19 25 24 13 18 27 29 26 24 23 22 21 19
17 12 7 4 14 19 20 21 20 22 22 24 24 23 21 19 18 16 15 15 14 15 14 13 15 14 18 16 18 20 19 17 12 13 25 31 22 28 27 25 23 22 22
11 6 0 12 20 18 20 18 18 21 23 25 27 24 22 21 18 16 15 15 15 15 14 15 17 20 17 15 17 19 16 18 20 23 22 26 26 29 29 32 25 14 12
8 7 11 11 14 21 20 21 21 21 22 25 26 24 23 20 19 17 16 17 19 18 16 16 19 16 14 14 15 18 20 23 22 21 17 18 23 28 31 33 22 10 12
11 10 12 14 19 22 21 20 19 20 22 23 25 24 23 22 20 18 17 19 20 20 16 16 14 13 13 14 15 17 20 15 18 19 22 13 14 28 25 21 15 11 16
15 15 16 17 20 23 21 20 19 20 21 24 25 24 24 24 21 19 19 19 21 21 16 14 13 14 14 15 15 14 16 14 16 12 5 13 21 13 10 12 17 22 17

GFSMA_925_spd_033.txt.gz
Wind_Speed
15 15 15 14 13 13 11 11 10 8 7 6 5 6 6 7 6 5 3 2 1 4 3 6 7 8 8 8 9 8 8 9 10 10 9 10 12 14 15 17 19 20 20
14 15 15 14 13 12 12 10 7 6 5 5 5 6 6 6 6 6 6 4 3 3 5 7 7 6 4 5 5 3 5 5 7 8 6 7 9 11 13 16 18 19 19
15 16 15 15 14 12 9 8 7 6 5 4 4 4 4 4 4 6 5 3 3 1 7 8 7 5 5 2 2 3 4 6 8 9 9 6 9 11 12 13 16 17 18
15 15 15 14 13 12 10 8 5 4 4 3 3 4 3 3 3 3 2 2 2 4 6 11 9 6 3 2 4 5 7 8 9 10 10 9 13 12 12 15 18 17 17
15 14 15 16 15 12 9 6 3 3 2 2 3 3 3 4 6 7 6 5 4 5 5 6 5 3 3 2 4 5 7 9 11 12 13 12 14 11 13 16 18 18 18
16 17 18 17 13 10 7 4 3 0 1 2 3 3 3 4 5 6 6 5 5 3 1 2 1 3 5 4 4 6 9 11 12 14 15 17 17 17 18 18 18 19 19
20 20 19 16 13 9 6 3 3 4 2 2 2 1 3 4 4 5 5 4 3 1 3 2 4 3 3 6 6 5 8 10 12 15 17 18 19 19 20 21 21 21 21
22 20 19 16 12 9 6 5 6 5 3 3 1 2 2 5 6 6 5 4 3 1 2 2 2 4 3 3 4 7 9 10 13 16 17 18 19 21 22 23 23 22 23
22 21 18 15 13 9 7 6 7 6 4 4 6 2 2 2 3 4 6 4 4 4 3 3 4 5 5 4 7 9 11 12 12 14 17 18 20 22 23 24 25 26 26
23 20 18 17 14 10 8 5 3 5 7 4 4 3 2 1 3 4 2 4 6 7 7 6 7 6 7 6 9 11 9 11 13 14 18 20 21 23 25 26 27 28 29
22 21 20 18 14 13 7 4 5 5 2 4 3 3 3 3 4 7 7 7 8 9 8 10 10 8 9 9 8 8 11 14 18 20 22 23 24 27 28 29 30 32 33
25 23 21 17 15 9 6 8 10 7 6 4 4 3 3 4 5 7 7 11 11 11 10 12 10 8 9 9 12 13 18 25 27 26 24 25 26 27 28 30 31 32 32
28 29 25 22 14 10 10 9 9 9 5 5 5 4 5 6 6 8 10 13 11 11 8 9 11 12 9 11 12 18 23 28 28 27 24 24 24 25 25 26 27 29 30
27 28 23 16 12 10 8 11 8 8 7 7 6 7 6 8 9 10 12 11 9 11 10 13 11 10 10 12 15 25 22 25 27 27 24 24 24 24 23 25 27 28 29
29 29 24 18 14 12 13 9 8 7 7 9 8 8 9 10 11 11 12 12 12 9 9 12 12 9 11 13 18 22 22 23 27 25 24 24 24 23 25 26 27 28 29
31 29 25 20 15 15 12 9 8 7 9 10 9 10 11 11 11 10 11 12 12 15 11 16 15 14 12 16 18 19 22 24 23 24 23 22 23 25 26 27 29 30 31
32 31 26 20 19 17 13 9 8 6 12 12 14 13 12 12 11 11 12 12 13 14 17 20 14 14 13 17 18 19 20 21 21 21 24 25 26 26 26 27 27 27 28
33 31 22 20 17 13 10 7 7 10 15 15 16 15 15 11 14 13 13 14 13 14 17 20 19 16 15 16 17 18 19 19 21 22 23 24 24 22 21 23 25 26 27
34 30 24 23 20 16 14 9 8 18 19 19 18 17 16 14 15 14 14 13 14 14 14 16 20 16 16 15 17 18 18 20 19 21 23 21 18 20 22 24 25 26 26
32 27 27 22 17 15 10 7 13 19 22 23 22 21 19 18 18 14 15 15 14 13 14 16 18 17 16 15 15 17 19 19 21 21 19 16 20 21 22 20 20 20 21
26 24 24 21 14 9 5 15 18 19 21 24 25 24 23 24 22 18 15 16 14 14 15 16 17 16 16 15 16 16 18 20 21 18 17 17 22 21 18 18 19 19 20
16 17 9 5 3 2 16 21 20 23 21 21 20 21 24 25 24 23 21 21 17 15 16 16 15 15 17 16 14 14 17 18 18 18 21 24 20 21 20 20 22 25 23
14 11 6 2 14 20 21 19 21 21 20 20 21 20 20 23 25 21 20 21 20 20 20 16 16 17 17 14 13 15 16 19 22 24 23 23 21 20 19 22 24 24 21
10 7 9 14 19 21 22 16 24 25 23 24 24 23 21 20 23 22 19 17 17 17 18 18 17 17 16 13 13 15 18 21 22 21 18 20 19 20 22 22 20 16 14
5 8 14 17 18 20 18 22 24 23 23 23 22 23 22 21 23 25 21 19 18 19 18 21 20 19 17 15 14 16 18 18 20 21 18 12 16 24 22 20 14 16 22
11 16 16 16 16 20 22 20 17 19 20 20 21 23 24 26 26 25 25 23 20 21 16 15 15 15 16 15 16 15 16 17 18 15 6 14 18 16 10 12 22 20 19

GFSMA_925_spd_036.txt.gz
Wind_Speed
12 11 12 11 11 10 9 8 8 7 6 6 4 4 5 6 7 5 4 3 2 3 3 6 8 8 6 6 6 6 5 6 5 7 4 6 8 9 12 14 15 17 17
11 11 11 11 10 8 8 7 6 6 4 4 4 5 5 5 6 5 4 4 4 1 4 6 7 7 5 5 2 1 3 3 4 6 6 5 6 9 9 10 13 15 16
13 12 11 11 10 9 9 8 7 5 3 3 3 3 4 5 4 4 3 2 3 3 5 7 6 4 4 2 1 0 3 5 6 8 9 5 9 12 10 10 13 15 15
13 13 13 11 9 10 9 8 5 3 2 2 1 2 2 2 2 2 1 1 0 1 2 9 10 6 3 1 3 5 6 7 8 10 11 12 13 13 9 10 15 16 16
13 13 11 11 12 10 9 7 5 2 1 1 1 1 2 3 2 1 2 2 1 1 2 6 6 5 4 5 4 6 8 10 11 12 13 14 16 16 14 15 16 18 18
14 13 13 14 13 11 9 7 5 3 2 1 3 4 4 4 4 4 3 2 2 2 4 5 5 5 9 8 6 6 8 10 10 11 13 16 17 18 19 20 19 19 20
16 15 14 16 13 11 9 8 6 4 2 3 6 6 5 5 6 6 4 4 4 4 5 7 7 8 6 7 8 4 7 8 10 13 15 16 18 18 19 21 21 22 23
16 17 16 16 13 12 11 9 7 4 4 5 8 5 4 8 8 8 6 6 6 6 7 7 7 8 8 9 9 10 8 8 11 13 15 17 18 20 22 24 24 25 25
17 17 16 16 16 14 11 10 10 9 6 7 9 6 4 4 3 8 9 8 7 8 8 9 9 9 9 10 11 10 9 12 11 11 15 18 20 22 24 26 27 28 28
16 17 17 17 16 13 12 12 10 10 10 8 7 8 6 6 4 4 8 8 8 10 9 11 10 11 11 12 11 14 13 11 12 14 18 21 24 26 27 28 29 30 31
18 19 19 18 17 15 13 12 11 11 9 7 9 6 8 6 7 7 7 8 8 10 9 10 12 13 14 13 13 12 13 15 16 19 21 24 25 26 27 28 29 30 31
21 21 20 20 16 14 14 13 11 11 9 8 6 8 8 7 8 9 8 11 10 10 11 11 13 13 13 14 14 15 16 17 23 25 21 22 24 25 26 27 28 29 29
28 27 24 19 18 17 15 13 14 13 12 10 9 9 8 8 8 9 10 12 12 11 10 11 13 14 14 15 15 15 16 23 25 26 23 24 24 24 25 26 26 27 28
34 28 24 21 19 20 17 14 11 14 10 11 11 10 8 9 9 10 11 11 8 13 14 14 11 14 15 16 17 22 21 23 24 23 25 24 24 25 26 26 26 27 28
24 23 24 23 24 18 16 14 12 12 11 11 10 10 10 9 10 11 11 13 13 9 9 14 14 12 15 17 19 20 24 24 24 28 24 23 24 25 26 26 27 28 29
24 23 24 24 22 22 17 15 13 12 11 11 10 10 10 10 11 12 13 13 14 15 10 16 16 16 15 19 19 22 24 24 26 23 23 23 25 26 27 27 28 29 29
25 26 25 25 27 18 18 16 12 8 10 10 12 12 12 12 13 14 14 14 15 16 17 19 17 18 16 19 21 21 23 24 24 23 22 25 25 26 26 26 25 25 25
22 25 25 24 23 18 15 14 11 6 9 10 15 15 16 16 17 17 17 17 18 17 19 20 19 20 20 18 21 21 22 22 24 24 23 26 26 25 24 23 24 25 27
20 21 21 21 20 18 16 12 7 7 12 14 17 17 19 19 20 20 19 18 19 19 18 19 21 19 20 18 20 20 21 22 22 22 23 24 21 22 23 25 26 26 26
17 19 19 15 12 12 11 10 5 12 14 16 20 23 23 23 23 23 22 21 20 20 19 19 20 20 19 18 18 20 21 20 22 22 23 21 21 23 24 24 24 23 23
16 20 20 17 20 17 12 9 16 15 16 19 22 25 26 27 27 27 25 23 20 19 19 19 20 20 19 18 17 18 20 20 21 20 21 20 23 24 23 21 21 21 18
15 21 18 17 10 12 14 19 19 22 20 22 23 23 24 26 27 33 32 31 25 21 21 20 21 20 20 18 17 18 17 19 17 17 21 24 22 23 22 21 19 24 26
17 18 14 11 15 15 17 23 25 26 21 22 24 24 25 25 24 25 26 31 30 27 28 24 23 22 20 18 17 18 17 18 20 22 22 24 22 23 22 21 20 24 22
14 13 10 12 15 19 21 26 22 20 22 25 24 25 26 27 27 25 25 25 23 23 23 24 24 23 20 18 17 17 17 19 21 20 19 21 22 20 21 23 21 20 20
7 6 8 10 12 20 19 16 18 19 21 23 22 24 25 26 26 26 27 26 26 25 23 25 26 23 24 24 22 17 17 17 19 19 18 17 18 22 22 24 16 11 23
1 5 10 12 11 12 15 19 19 17 22 23 24 24 24 26 27 26 27 27 28 27 25 23 19 24 26 22 21 19 18 19 18 18 16 17 20 21 16 20 13 22 24

GFSMA_925_spd_039.txt.gz
Wind_Speed
12 12 11 12 11 10 10 8 7 6 4 4 4 4 5 5 4 2 1 3 3 6 4 8 9 8 8 8 6 5 5 4 5 7 5 7 6 8 10 10 12 16 17
13 12 12 12 10 10 8 7 7 6 4 2 3 4 4 3 2 2 1 1 2 4 4 7 9 8 7 6 2 2 3 3 4 6 8 7 6 10 14 10 11 14 16
14 12 12 11 11 9 9 8 8 6 4 2 2 2 1 1 2 2 2 1 3 4 5 7 6 5 6 4 3 2 2 3 5 7 8 9 11 13 15 10 11 15 15
14 12 12 12 11 11 10 10 9 6 4 3 2 1 1 1 1 1 1 0 1 2 4 9 10 9 7 4 1 1 2 5 6 8 9 10 11 13 13 13 15 16 17
14 13 11 11 12 10 10 10 8 6 4 3 3 2 2 4 3 1 1 1 2 2 4 3 10 8 8 7 2 3 6 7 8 8 9 11 13 16 17 18 19 20 20
14 13 11 11 13 11 10 10 8 5 4 2 4 5 5 5 4 5 4 4 4 4 5 4 5 9 10 12 12 5 5 6 6 7 9 12 13 15 16 17 19 20 21
14 14 13 13 13 12 12 11 9 8 6 2 5 10 10 9 7 8 8 7 7 7 6 8 9 8 5 7 9 9 3 5 7 9 11 12 14 15 18 20 22 23 24
15 16 14 15 15 14 13 12 11 8 5 4 5 9 6 7 11 12 11 9 9 8 10 10 9 8 10 10 5 7 9 9 7 9 10 12 15 17 20 22 24 26 28
17 17 16 15 15 15 15 15 11 9 6 6 7 6 4 5 6 12 13 10 10 10 10 10 11 11 10 11 12 12 8 8 10 9 11 14 18 21 23 25 27 28 29
17 17 16 15 16 16 15 13 12 9 6 6 7 9 10 8 4 5 11 14 12 11 12 11 11 11 12 12 13 14 15 14 13 13 14 17 21 23 25 26 26 27 28
18 18 17 18 17 16 14 13 12 10 10 7 9 11 9 10 10 8 8 9 14 11 11 10 11 12 13 14 13 12 12 11 13 18 18 21 22 23 24 25 26 27 28
19 21 21 20 18 20 16 15 13 10 7 10 11 11 10 11 11 12 10 13 12 14 14 11 10 13 13 13 13 14 15 18 21 23 20 21 22 23 24 25 26 27 28
22 23 25 26 24 21 16 16 14 13 11 12 11 10 11 13 12 12 12 13 13 15 15 13 13 14 13 13 14 13 13 17 23 21 19 22 24 25 25 25 26 27 28
23 29 29 27 23 19 18 17 15 10 10 12 11 10 11 13 12 12 12 13 9 15 16 17 15 14 15 15 15 18 19 21 18 23 27 29 26 24 25 25 26 27 28
29 31 29 28 23 21 23 19 15 14 13 13 12 12 11 13 13 13 13 13 14 9 9 17 16 15 15 15 16 12 18 22 25 29 32 27 23 24 24 27 27 28 28
24 25 28 29 25 25 19 17 13 11 12 12 11 8 10 14 14 15 14 15 15 17 10 18 18 18 16 19 19 17 20 24 26 25 25 25 21 22 26 28 28 28 27
22 22 24 23 24 19 19 16 13 11 13 8 5 9 15 16 17 16 15 16 17 17 16 20 20 19 18 19 21 20 20 23 25 24 22 24 26 29 27 27 28 26 24
21 23 21 22 21 19 20 18 14 14 9 4 5 17 20 20 19 20 19 19 20 19 20 21 22 21 21 20 21 21 22 23 24 25 25 26 30 26 25 26 25 24 26
17 18 19 22 21 20 17 17 14 10 3 9 17 16 20 21 22 22 22 21 21 23 21 21 22 21 21 21 22 21 22 22 24 24 23 23 25 23 27 29 27 25 24
16 16 19 19 19 18 19 15 15 9 15 14 13 17 22 25 25 25 25 24 24 24 23 25 21 22 21 21 19 21 22 22 22 23 23 25 23 24 24 26 27 26 25
11 15 17 17 17 16 17 15 15 18 15 15 19 21 25 27 29 30 29 28 27 26 25 26 20 21 20 20 19 20 21 23 23 21 23 22 21 23 24 23 24 23 18
12 14 14 17 19 17 18 18 18 18 13 15 22 24 25 26 30 31 35 37 41 34 31 27 22 21 22 21 20 19 20 20 18 20 19 24 22 23 23 22 21 21 21
12 14 19 17 18 17 17 18 18 14 25 28 27 25 25 26 27 28 30 33 33 36 42 36 30 28 24 23 21 21 21 21 22 22 20 24 22 23 22 21 21 23 25
13 14 14 11 7 7 11 13 19 24 20 19 21 24 26 27 28 29 29 31 31 29 31 32 33 32 27 24 22 21 19 20 22 23 21 21 21 21 20 22 25 26 24
9 8 5 4 7 11 14 17 12 13 18 21 22 23 25 27 29 30 30 28 31 35 31 32 32 29 27 26 22 16 17 18 18 22 19 19 21 20 21 23 22 19 15
7 4 4 6 10 7 8 7 9 13 17 20 22 24 26 27 29 30 31 29 30 34 31 28 28 31 33 30 28 25 21 19 19 18 18 16 19 20 17 21 14 25 23

GFSMA_925_spd_042.txt.gz
Wind_Speed
14 13 13 11 12 14 9 9 5 7 7 6 6 5 6 5 6 3 0 2 2 7 8 9 10 9 8 9 7 6 6 5 5 6 6 6 6 9 13 11 11 15 16
11 12 15 13 14 10 10 9 10 7 7 3 4 4 4 4 1 1 2 2 3 6 8 10 11 11 9 8 5 5 5 3 2 4 5 6 6 11 12 9 10 14 14
13 11 13 11 11 12 11 11 12 8 6 4 3 3 1 3 1 1 3 1 2 5 9 10 12 10 9 6 6 5 2 1 2 4 5 6 7 9 10 10 10 12 14
14 14 15 14 13 13 10 8 10 9 7 5 5 3 3 1 3 1 1 1 6 5 7 12 13 13 11 9 6 3 2 1 2 4 5 6 8 10 11 13 13 14 16
12 16 13 14 15 12 12 13 11 9 10 6 7 9 7 6 5 5 4 3 4 4 5 7 7 10 10 10 9 7 3 4 4 4 5 7 10 11 12 13 14 15 17
17 16 16 17 15 14 14 14 12 9 6 9 8 7 11 10 10 9 7 7 5 6 1 5 4 7 12 12 11 10 6 4 3 4 7 9 10 11 12 14 16 18 19
17 18 17 19 19 17 17 16 14 13 9 8 5 13 19 18 13 11 11 10 9 9 7 7 5 6 11 10 10 7 7 6 3 5 7 9 10 12 14 17 20 22 23
21 21 19 18 17 16 17 19 15 14 13 12 4 6 3 7 14 15 14 14 13 10 9 11 11 11 5 6 10 9 9 12 11 5 6 9 12 15 18 20 22 24 26
20 20 20 17 17 18 21 18 18 15 14 13 10 4 2 2 2 18 18 15 12 16 13 11 8 12 13 12 13 10 11 10 9 9 10 10 15 18 20 22 23 24 25
22 19 21 21 18 22 17 18 19 17 15 6 9 9 9 4 2 3 14 19 16 14 15 17 14 11 10 12 15 18 13 13 11 10 13 13 16 19 21 22 23 24 25
23 23 18 23 21 23 18 22 21 19 13 13 7 5 10 10 10 8 4 7 18 20 21 20 18 16 13 13 14 17 19 15 12 14 16 15 16 18 20 22 24 25 26
23 22 21 21 24 22 22 19 18 19 15 13 12 9 8 3 6 6 5 9 10 11 10 15 15 13 12 14 14 17 16 15 16 17 18 19 16 19 23 25 25 26 26
22 24 23 23 27 26 22 19 19 17 18 17 11 9 7 8 7 10 12 10 7 15 16 16 15 16 17 17 19 18 16 17 15 17 20 20 18 22 24 24 24 25 26
30 25 28 31 29 29 23 19 20 20 16 15 12 9 11 7 8 12 10 9 4 11 17 19 15 15 20 18 17 15 15 13 12 15 20 22 28 24 23 23 24 26 27
26 26 28 30 30 26 23 25 25 18 14 14 12 12 8 10 10 10 13 13 12 3 4 17 18 16 13 10 14 14 13 14 17 21 25 29 27 23 22 23 26 29 29
27 27 29 28 29 25 26 27 22 17 17 13 10 9 5 4 9 16 15 15 16 15 4 14 16 18 18 18 16 14 15 17 19 23 23 27 26 25 25 24 26 27 26
26 25 25 25 26 28 27 24 20 17 16 13 12 7 4 10 21 21 20 21 19 20 16 21 20 21 22 19 16 17 17 17 17 19 22 24 26 29 29 27 28 28 25
23 17 18 21 23 27 24 19 19 14 14 16 8 4 10 23 19 21 23 23 24 24 23 20 24 24 26 24 21 19 21 22 22 22 23 28 31 31 27 26 29 30 29
18 15 20 23 26 23 19 20 20 16 17 12 9 17 17 15 20 22 24 26 24 24 26 27 26 27 27 25 23 22 22 22 20 21 26 21 19 22 30 30 30 30 30
17 19 20 21 18 21 21 20 17 21 15 14 19 14 15 18 23 25 26 26 26 28 29 29 27 30 28 27 25 22 21 21 25 17 18 21 25 28 22 20 28 32 30
16 16 17 18 20 21 19 19 21 19 16 17 15 15 17 22 26 29 29 29 29 29 27 25 24 25 26 26 23 23 18 15 19 17 16 20 23 20 24 26 27 26 23
14 15 17 21 20 18 20 20 17 16 13 16 15 18 26 34 28 26 29 32 37 39 33 29 30 27 26 24 26 24 16 11 6 18 18 21 20 24 26 25 24 15 18
14 16 16 17 16 15 15 15 13 15 12 12 19 28 23 21 22 26 28 30 32 33 34 41 34 31 30 33 28 18 17 16 18 17 13 21 24 26 26 20 21 25 27
14 15 13 12 10 10 7 10 10 12 15 18 17 19 21 23 24 24 27 31 33 33 31 32 36 43 42 41 33 25 22 21 18 20 17 18 24 27 22 22 20 21 23
14 13 10 9 8 7 5 7 9 7 9 12 14 16 19 21 20 26 32 32 33 34 32 34 36 38 41 39 34 29 20 16 11 17 16 20 24 22 18 20 22 20 18
14 12 8 6 6 4 6 8 5 3 7 11 17 22 26 27 26 28 31 31 31 34 34 35 38 34 34 32 33 34 29 21 14 6 22 18 22 12 8 19 10 24 23

GFSMA_925_spd_048.txt.gz
Wind_Speed
30 27 23 21 19 17 13 11 12 10 9 7 9 9 10 10 9 7 7 9 10 10 9 8 9 9 10 9 9 9 8 6 7 6 6 6 8 9 10 9 10 11 12
28 24 22 19 17 17 15 13 12 12 10 5 8 9 8 8 4 6 7 8 8 8 10 9 10 10 11 9 9 8 6 5 4 4 3 3 5 7 9 9 10 11 12
25 22 19 17 18 17 13 16 14 13 11 8 7 10 9 5 3 4 5 5 5 5 9 12 12 11 12 10 8 8 5 5 3 2 2 3 4 6 8 9 10 11 12
19 17 13 16 18 16 18 18 16 14 14 11 10 10 8 6 5 4 6 4 5 5 8 14 15 14 13 10 9 9 7 6 4 2 2 2 4 5 7 8 10 11 12
15 15 14 16 17 22 22 21 18 18 17 15 13 10 10 11 9 5 6 8 8 9 9 11 13 15 14 13 12 10 9 6 5 4 3 0 2 4 6 8 10 12 14
11 14 16 16 18 21 21 22 23 19 16 16 15 13 14 12 10 8 9 11 11 13 13 12 13 13 13 14 13 12 10 8 7 7 5 3 2 2 6 9 12 14 16
16 18 18 18 19 25 25 24 20 19 17 18 14 9 14 16 15 13 13 14 13 15 16 14 14 15 15 15 14 13 12 10 10 9 8 7 8 8 6 10 13 15 17
20 23 22 22 23 26 27 25 25 23 17 19 11 4 1 5 14 17 17 19 19 17 18 17 17 19 18 18 18 17 15 14 13 12 11 10 10 8 7 11 13 15 17
29 29 27 25 26 28 31 29 29 29 26 22 20 9 2 4 2 11 23 23 22 22 21 21 21 19 20 20 20 21 20 20 19 16 15 14 12 9 9 11 13 14 17
30 26 28 27 27 32 33 30 29 30 27 24 17 20 7 6 3 2 11 18 23 24 25 25 25 23 22 22 22 23 23 23 23 20 19 17 14 11 10 12 13 16 18
35 32 30 29 31 34 34 29 28 31 31 27 20 11 17 9 9 4 3 7 18 23 25 27 27 27 25 24 26 26 26 26 25 25 22 19 16 14 13 13 15 18 19
40 35 34 34 34 34 28 28 28 31 31 26 21 19 17 8 13 9 4 7 9 12 17 23 28 28 28 28 29 29 30 30 28 28 26 23 19 17 16 15 17 18 18
39 37 35 35 29 29 29 28 30 31 31 25 27 27 22 20 16 12 12 5 6 8 7 11 13 12 15 26 31 31 32 30 29 30 30 26 22 19 18 18 17 18 18
40 35 33 32 31 30 30 29 29 30 29 27 27 20 23 16 14 10 5 5 2 5 6 16 16 16 14 16 22 31 30 31 31 33 32 28 25 23 21 19 17 18 18
40 36 35 32 29 30 29 30 29 28 28 28 21 21 16 14 12 7 4 2 1 2 4 15 13 13 14 18 21 22 24 30 33 33 32 30 28 26 23 20 19 18 18
43 37 34 29 30 30 28 28 30 29 27 22 21 19 17 14 13 13 10 10 14 13 6 14 19 24 27 23 24 24 24 24 29 34 34 33 32 29 26 22 20 19 20
40 37 34 29 29 30 30 27 29 28 24 21 22 21 20 17 16 13 12 13 16 19 18 22 26 29 24 25 28 29 31 32 31 34 37 37 36 33 29 24 21 21 23
37 34 28 25 28 31 27 28 28 25 24 26 25 23 17 18 15 12 10 10 16 19 23 21 24 25 28 28 31 30 33 37 38 39 40 42 40 36 31 26 24 25 25
32 30 26 27 27 25 25 27 27 26 28 27 25 19 21 16 11 10 7 11 17 24 25 26 24 26 27 28 32 34 37 38 40 41 42 44 43 41 36 30 28 27 25
34 30 28 27 26 25 25 26 26 27 25 23 19 20 18 13 7 13 13 17 25 23 25 26 24 25 26 29 27 29 31 33 36 39 42 45 44 42 40 34 29 25 26
33 31 28 24 23 23 24 24 25 24 23 21 20 18 15 11 14 10 16 17 18 20 22 21 20 22 22 23 23 27 28 32 36 38 39 42 41 43 40 30 24 24 25
27 26 25 24 23 23 22 22 25 24 22 20 17 12 9 13 9 12 12 11 9 11 15 16 19 18 23 22 25 26 26 23 17 28 26 33 34 34 35 34 23 29 25
25 25 23 23 22 21 20 21 19 20 18 15 9 7 8 7 9 10 10 13 16 19 19 18 22 21 25 24 26 27 27 26 28 29 26 26 31 35 39 31 29 25 19
24 21 21 21 21 21 20 19 17 18 14 10 7 7 7 4 7 11 16 19 21 22 21 20 21 26 27 30 29 30 30 32 35 35 29 20 27 35 35 36 27 19 18
19 19 20 21 22 23 20 19 18 15 12 9 7 5 4 6 9 11 16 19 21 21 20 21 23 26 27 26 24 27 25 22 23 28 26 27 23 22 20 24 22 16 17
24 24 22 19 20 22 19 18 16 14 13 10 7 5 6 8 8 10 12 14 18 20 24 27 24 23 23 24 25 22 26 25 21 23 22 18 18 12 3 14 18 18 14

GFSMA_925_spd_054.txt.gz
Wind_Speed
34 32 31 29 28 25 22 22 21 19 18 18 15 13 12 13 13 14 14 13 12 11 11 11 12 12 13 13 11 11 10 9 8 7 8 7 7 8 9 9 9 10 10
35 32 29 27 25 21 20 20 18 18 17 14 13 12 12 11 11 10 11 11 11 10 10 11 12 11 11 10 10 9 8 7 7 6 6 6 5 6 6 7 7 8 10
34 32 29 27 24 21 20 19 18 16 15 14 13 12 12 11 9 8 9 8 10 13 12 12 11 12 11 10 8 9 7 7 6 6 7 5 3 3 4 5 6 7 8
34 30 27 25 24 20 19 17 15 15 14 13 13 14 13 10 8 7 7 8 9 12 15 15 12 11 12 11 10 10 6 7 7 7 7 6 4 2 2 4 4 6 7
33 28 25 24 23 21 19 18 16 14 15 14 14 13 11 10 9 7 7 8 10 11 13 13 14 14 13 13 12 10 9 9 9 9 10 9 7 4 5 4 4 5 6
30 25 23 23 21 22 20 19 17 17 17 16 14 12 12 13 13 12 11 11 12 12 11 11 13 15 15 14 13 12 11 12 12 12 12 11 8 7 6 5 4 5 6
23 24 23 20 23 24 20 20 20 20 17 18 13 10 12 14 16 17 16 15 15 14 13 12 13 14 15 16 17 15 15 15 16 16 15 14 12 10 8 7 6 5 6
23 24 22 18 23 25 19 22 23 22 20 19 9 4 1 7 21 23 22 20 19 18 16 16 15 14 14 16 18 19 17 17 18 18 18 17 16 14 13 11 9 7 7
21 17 20 18 20 17 18 21 24 25 23 22 22 9 2 4 2 11 23 24 21 22 20 20 20 18 18 19 19 21 22 21 20 19 20 20 19 19 17 15 13 12 10
30 21 17 15 16 16 18 19 22 27 26 25 23 24 15 6 4 2 8 14 22 24 22 21 24 23 24 23 23 25 25 26 25 25 22 22 22 22 20 19 18 16 14
37 30 24 20 20 21 21 21 26 29 31 29 25 15 22 12 11 3 3 6 11 19 22 22 24 26 27 26 26 26 26 28 30 30 30 26 25 25 25 24 23 21 20
38 39 32 29 27 23 24 25 28 30 32 34 31 29 22 11 14 7 3 9 9 9 12 16 21 23 23 24 22 23 25 28 30 33 35 35 31 28 27 29 28 26 25
39 44 42 41 37 35 30 30 30 32 31 30 36 37 35 33 25 22 17 7 9 9 8 11 12 11 10 8 8 13 16 17 20 25 31 36 38 38 35 32 31 32 29
41 43 44 44 42 38 36 35 34 31 30 33 36 33 37 35 29 25 17 12 2 6 7 8 8 11 10 12 15 12 12 16 19 20 23 25 30 38 42 41 38 35 36
43 38 35 35 36 38 36 32 37 36 37 36 32 34 33 31 27 24 24 23 15 4 4 8 9 9 13 14 14 19 22 22 19 19 20 23 27 29 33 39 44 44 42
39 38 35 34 37 40 38 39 44 42 43 35 33 33 30 30 28 25 23 20 19 12 3 12 10 14 16 18 17 19 20 19 21 22 23 26 28 31 34 37 40 45 46
38 38 37 36 38 37 36 35 40 38 39 36 33 30 29 29 28 25 22 19 16 14 9 8 10 11 14 18 21 20 20 19 20 22 24 25 26 28 32 34 38 41 46
41 41 39 39 40 38 34 33 35 37 36 34 31 29 27 28 26 25 22 18 16 14 11 8 6 11 16 17 17 19 20 21 22 23 25 27 28 30 32 34 35 37 41
42 42 43 41 41 35 36 35 34 35 34 34 33 31 29 30 29 26 22 19 16 13 9 6 5 10 14 14 15 19 20 24 26 27 31 32 33 36 37 38 40 40 41
40 39 43 43 40 40 39 35 31 34 35 35 32 29 30 30 29 25 21 17 13 9 6 6 6 8 10 14 18 19 25 28 32 33 33 30 29 29 30 34 38 40 42
41 39 41 38 39 41 40 33 32 35 35 31 29 27 25 25 24 21 21 18 14 9 7 5 5 7 14 15 15 16 23 26 27 28 20 22 25 31 35 35 34 39 38
37 37 38 37 36 37 37 33 32 31 30 28 26 21 20 19 20 19 16 13 10 8 6 4 7 9 13 14 17 20 22 16 9 13 19 33 28 31 34 34 32 33 32
34 36 38 36 34 33 31 29 28 26 24 24 23 24 23 22 20 17 13 10 7 6 7 7 8 9 10 13 17 20 18 15 18 25 25 33 24 29 30 32 32 31 28
33 32 33 31 29 28 25 24 21 20 21 21 23 25 26 21 17 14 11 8 5 5 6 6 7 8 11 14 15 16 18 22 25 22 19 24 26 30 32 35 34 31 28
23 22 23 22 20 17 19 20 20 22 22 22 21 21 20 17 13 10 7 5 5 3 3 3 6 9 10 11 10 13 15 15 19 17 18 21 23 25 28 33 27 26 23
20 19 18 15 17 21 22 20 21 25 27 25 21 18 15 11 8 5 5 5 4 3 4 7 9 9 9 8 8 9 13 13 13 15 7 13 20 15 10 19 15 25 19

GFSMA_925_spd_057.txt.gz
Wind_Speed
39 37 33 32 30 29 30 29 26 23 21 19 17 16 16 14 14 13 13 16 15 15 15 15 14 14 12 12 12 12 11 9 9 9 9 10 10 10 10 9 9 9 9
38 36 33 30 31 29 27 26 25 22 19 18 17 16 15 14 14 13 12 13 14 13 14 14 14 13 13 12 11 11 10 8 8 7 7 6 7 8 7 6 6 6 7
36 36 32 30 27 28 26 25 22 21 20 18 16 15 15 14 13 13 12 12 13 14 12 12 14 14 14 14 11 11 9 8 7 5 6 3 4 4 4 4 3 4 5
37 34 33 31 27 26 25 24 23 21 19 17 17 15 14 13 12 11 13 12 11 11 12 13 12 12 15 13 12 10 8 8 7 6 5 3 1 1 2 3 3 3 3
34 33 32 31 28 25 24 23 22 21 20 18 15 15 15 13 12 12 11 11 12 12 11 13 15 15 15 14 12 10 10 9 8 7 7 7 5 6 5 5 5 4 4
33 33 31 30 27 25 24 22 22 21 19 18 14 15 15 13 16 13 11 12 13 12 12 13 14 15 18 17 15 13 11 11 11 10 9 10 10 10 10 8 7 6 5
34 33 31 28 27 27 26 23 21 21 18 17 11 7 10 16 17 17 16 15 15 14 14 14 13 13 16 19 17 16 13 12 12 14 13 14 15 15 15 14 12 10 8
37 35 30 29 27 27 25 23 24 19 12 20 9 5 4 8 17 21 20 19 18 17 17 17 16 17 15 14 16 17 15 15 14 15 17 18 19 20 20 19 16 14 12
36 33 30 29 24 26 25 25 26 23 14 20 21 7 3 5 3 8 20 22 22 21 21 21 20 20 19 17 18 17 19 20 17 17 19 21 22 23 23 23 21 19 17
30 31 28 17 22 26 26 24 23 29 23 16 17 24 14 3 4 2 5 9 18 22 23 24 24 24 23 21 21 19 19 21 23 24 22 22 24 25 26 26 25 23 22
33 33 26 29 28 22 24 20 22 27 27 20 21 11 16 15 11 9 5 6 12 18 20 22 25 23 24 24 23 22 21 24 26 26 28 29 28 27 28 29 28 28 27
33 34 34 31 34 31 26 23 23 22 24 25 21 24 21 10 14 12 8 11 14 9 13 17 20 22 21 20 20 23 23 24 23 24 29 30 32 31 32 31 31 30 31
36 37 35 38 43 35 29 26 23 22 22 24 24 27 33 31 26 21 19 9 11 8 8 15 16 15 16 17 17 16 15 14 18 22 19 20 23 29 33 35 37 37 36
37 36 40 39 39 37 34 32 32 29 24 25 26 27 31 32 32 30 21 13 3 7 10 10 12 14 14 13 11 10 12 13 16 18 21 21 21 22 24 26 31 34 39
35 38 41 40 38 40 37 32 30 32 28 26 27 31 31 37 31 30 25 26 19 5 6 11 11 16 14 12 10 12 15 17 18 17 17 19 22 25 27 30 32 33 34
35 35 41 41 39 38 39 35 29 29 31 32 34 34 35 36 35 30 28 30 26 17 6 12 15 12 15 12 13 13 14 17 18 18 20 23 24 26 28 30 32 33 35
33 34 33 32 33 35 35 31 32 31 32 35 32 31 29 29 33 31 31 27 27 23 14 8 16 18 16 16 12 15 15 15 14 17 19 21 23 24 26 29 31 33 36
34 35 34 37 41 39 38 37 32 33 32 33 33 32 32 30 29 30 33 31 24 20 16 12 13 15 13 15 14 16 12 9 10 16 20 23 26 27 29 31 33 36 38
41 35 35 36 36 38 39 41 38 37 36 34 34 35 34 30 32 29 31 24 20 21 18 13 13 14 13 15 9 8 10 11 14 19 23 25 25 23 24 24 27 30 33
38 41 41 38 36 37 39 43 43 41 37 36 35 32 36 38 35 32 30 26 25 18 18 13 12 11 10 9 6 9 11 10 15 18 19 16 18 19 23 26 27 29 30
38 37 36 37 37 34 35 35 36 38 36 36 35 34 38 36 33 32 30 30 26 24 21 12 8 6 9 8 7 6 11 13 16 15 10 12 17 20 21 22 24 25 29
34 34 35 34 32 36 38 39 36 36 39 36 32 32 31 27 25 23 26 25 25 23 19 13 7 7 8 6 6 7 10 11 7 7 12 22 20 22 20 22 25 30 29
32 33 33 32 35 35 38 40 36 37 33 33 32 29 25 24 25 25 21 21 19 15 13 11 7 8 5 5 5 9 10 11 14 18 19 23 19 24 21 23 25 29 28
28 30 32 35 35 35 39 37 32 34 30 27 27 28 29 29 27 26 25 20 15 10 6 5 7 5 4 5 6 9 11 14 15 17 15 14 17 23 22 24 27 27 21
29 31 31 31 31 31 28 25 31 27 22 23 25 27 30 30 26 23 21 17 12 8 8 8 7 5 6 8 8 7 9 10 11 13 14 15 15 26 27 25 14 15 21
22 18 17 18 20 19 18 29 30 28 28 26 23 23 25 27 24 18 14 12 12 11 9 5 2 4 6 6 7 6 6 9 11 11 2 9 18 15 11 16 10 22 17

GFSMA_925_spd_060.txt.gz
Wind_Speed
28 28 29 28 28 25 25 23 18 17 16 16 16 15 13 13 13 14 15 17 16 18 17 15 15 15 13 13 12 12 11 10 11 10 9 9 9 9 9 9 9 10 10
30 26 28 26 24 23 22 21 21 19 17 16 15 14 12 12 11 11 12 14 14 15 16 16 15 14 15 14 13 11 11 10 9 9 8 7 7 8 7 7 7 8 8
28 25 25 23 23 22 21 20 20 17 16 15 15 13 12 12 11 11 11 11 13 15 15 16 16 16 16 14 14 13 11 11 10 9 9 6 5 4 4 6 6 6 5
32 23 23 21 21 20 20 19 18 17 16 16 15 13 12 11 11 10 9 10 11 11 16 16 16 17 18 16 14 13 12 12 11 11 11 8 5 2 1 3 4 4 4
26 19 19 20 21 19 19 18 17 17 15 14 14 14 12 11 12 10 11 11 11 11 11 14 17 16 17 17 16 14 15 15 14 13 13 12 8 5 5 3 3 3 4
17 18 19 20 20 19 19 17 16 14 15 15 14 13 12 12 11 12 11 11 12 14 13 12 14 16 18 20 18 18 16 18 17 16 15 14 12 10 9 8 8 7 7
27 23 21 21 21 20 19 18 15 15 13 13 12 10 10 11 13 12 12 12 14 15 14 14 15 14 16 22 22 20 18 18 19 19 17 17 17 15 13 13 13 12 12
25 23 21 22 21 19 18 18 16 14 14 16 12 11 6 11 16 18 16 18 17 16 16 16 15 15 14 15 20 24 23 20 19 18 19 20 19 19 18 18 18 17 16
22 24 26 22 22 19 19 17 17 17 13 15 16 9 4 6 7 12 19 20 18 19 19 18 22 18 18 18 19 21 24 25 23 20 19 19 19 20 22 23 23 23 22
25 26 26 23 21 20 18 17 16 16 17 16 15 18 13 4 5 4 9 14 18 24 22 21 21 21 21 20 22 20 20 22 24 25 22 19 19 21 24 27 28 28 28
23 28 28 23 22 21 17 15 12 17 18 21 17 12 16 14 12 8 3 6 9 16 19 21 20 20 21 22 20 22 25 25 22 24 26 26 26 24 26 28 28 30 31
30 35 36 31 26 26 22 21 16 19 20 21 21 20 17 10 15 13 8 9 14 14 18 19 19 20 19 19 21 23 23 23 25 25 24 25 28 28 28 28 30 31 31
28 30 33 35 38 31 26 26 35 32 25 23 21 21 20 20 18 15 13 10 12 16 15 20 20 19 18 18 20 23 24 23 24 21 20 22 24 25 25 25 26 28 31
33 37 41 32 34 39 37 31 30 27 24 23 23 24 22 22 21 22 18 15 5 15 21 20 15 19 17 15 15 18 15 18 18 20 21 23 24 25 24 24 25 27 27
33 37 39 34 31 30 35 31 32 32 29 26 28 27 25 23 21 23 26 24 21 7 10 19 17 18 16 14 15 15 13 14 19 21 22 23 24 24 24 26 28 30 32
36 32 34 36 36 32 32 32 33 34 33 32 31 31 29 24 22 22 25 34 30 26 7 18 19 15 20 17 19 18 13 17 19 21 22 22 24 25 26 27 29 31 32
38 39 37 37 37 38 37 36 36 35 35 35 34 34 32 30 28 32 34 32 33 29 18 14 17 17 23 24 15 16 13 13 15 20 21 22 23 24 25 27 30 33 35
42 42 41 41 41 40 39 38 38 38 36 35 33 28 27 27 26 32 33 34 29 28 24 20 23 18 17 21 18 14 13 14 14 17 22 21 22 24 27 29 30 31 31
38 39 40 42 44 45 43 41 42 40 38 36 32 27 27 29 32 34 34 30 27 25 26 20 15 22 19 17 16 14 14 15 15 18 22 19 19 22 23 23 26 28 29
37 38 39 41 40 39 40 41 40 38 37 38 40 43 42 38 35 38 36 32 33 30 26 21 16 16 15 14 13 11 14 15 15 15 16 16 17 17 18 21 26 26 24
37 38 38 38 38 36 36 35 34 32 31 33 35 37 42 43 40 41 37 34 33 31 28 21 13 10 12 11 14 11 13 12 14 15 15 11 13 15 18 20 22 22 21
34 35 35 36 36 37 38 41 39 34 32 32 34 36 38 43 42 41 40 35 39 33 27 18 15 15 14 14 11 11 11 11 11 8 10 13 16 19 19 19 22 26 29
32 35 35 34 35 35 36 38 39 38 34 36 36 33 34 36 36 32 30 28 29 29 29 28 22 16 12 12 10 10 11 12 14 14 14 18 17 20 18 19 22 26 30
30 30 31 31 31 33 35 37 38 42 41 36 34 36 34 32 31 34 34 31 27 21 16 16 14 12 9 10 8 9 9 11 14 15 13 15 14 18 19 20 24 26 22
25 25 24 27 29 29 32 36 37 35 30 24 23 25 27 27 28 32 29 24 13 14 14 14 13 13 13 12 9 7 9 9 10 12 11 15 14 19 21 24 15 16 16
19 20 21 22 25 26 26 23 24 27 23 20 18 18 22 24 29 28 26 24 18 12 10 10 7 5 3 4 7 7 7 9 9 10 5 6 11 15 9 12 9 19 17

GFSMA_925_spd_063.txt.gz
Wind_Speed
25 27 29 29 27 24 24 22 17 18 17 15 14 14 14 13 16 16 17 18 18 17 16 15 15 14 13 14 13 13 13 12 12 11 10 10 10 10 9 8 8 7 7
22 25 30 29 28 27 24 21 18 18 17 17 15 14 14 14 14 15 15 16 16 18 18 17 15 14 14 14 14 12 12 12 12 10 9 8 8 8 6 6 6 5 5
22 23 26 29 27 27 25 20 18 19 18 17 16 14 14 13 13 14 15 15 16 18 19 18 18 17 16 14 14 14 13 12 12 11 9 8 7 6 5 4 3 3 3
23 22 22 21 22 20 20 19 21 20 19 18 17 15 14 13 13 12 13 15 15 15 20 19 20 18 20 18 16 16 15 14 13 13 12 10 8 7 5 3 2 1 2
26 20 21 19 21 21 20 19 19 18 17 18 17 16 14 13 13 13 12 12 13 15 15 20 21 21 22 21 19 17 16 15 15 15 15 13 11 10 8 7 4 3 3
24 20 19 18 17 19 18 18 17 17 17 16 16 14 13 13 13 12 13 14 14 14 13 16 19 21 23 23 23 20 18 18 17 17 16 16 15 14 13 12 9 8 7
24 19 16 20 19 19 19 17 16 16 15 14 14 13 11 11 12 14 14 15 15 16 15 15 16 18 22 25 27 23 21 19 21 21 20 19 20 19 18 17 15 14 13
28 30 22 19 21 16 19 20 19 16 15 15 14 14 7 11 16 18 17 17 18 17 17 17 18 19 17 23 28 29 26 24 22 23 23 24 23 24 23 22 20 19 17
25 25 23 20 23 20 21 21 20 18 16 16 16 11 5 7 16 20 22 19 18 17 17 17 20 20 21 20 23 26 26 29 28 24 23 22 24 26 25 25 24 23 22
23 23 25 24 23 23 23 23 20 18 17 16 12 16 15 11 2 5 13 19 17 18 19 21 17 21 23 23 23 22 26 27 29 30 28 25 23 22 23 24 26 27 28
33 30 30 37 27 24 23 21 20 19 18 19 16 13 16 16 15 9 6 9 11 16 22 21 25 21 26 27 26 25 28 26 28 29 31 32 29 25 24 25 25 26 27
31 34 34 35 38 27 27 25 22 21 20 16 19 18 18 15 16 14 10 14 15 15 24 25 23 22 29 27 29 26 28 31 34 32 31 31 31 30 27 25 25 26 28
30 33 32 30 37 41 32 28 28 23 19 18 18 19 22 23 20 17 14 16 13 17 14 23 24 27 29 29 27 29 33 34 31 32 31 31 29 28 26 26 25 22 23
37 31 32 33 34 37 35 32 30 30 26 24 20 20 23 25 22 20 19 16 7 12 16 20 25 32 27 30 29 31 30 32 33 30 28 27 25 24 25 25 26 26 25
34 33 34 34 34 35 37 37 31 31 28 27 29 27 28 28 27 25 24 24 20 9 10 16 20 29 29 29 29 32 30 27 26 26 24 24 24 25 26 26 25 25 26
35 32 34 34 37 37 37 35 33 33 31 29 31 30 32 31 30 30 28 25 26 23 9 19 26 26 33 29 29 32 24 25 25 24 25 25 25 26 26 25 25 26 27
37 36 34 34 35 37 39 37 35 33 33 34 34 35 36 34 32 30 28 27 25 25 20 31 27 25 24 32 30 31 23 23 21 22 22 23 24 25 25 25 25 26 28
38 39 37 36 38 38 38 39 39 37 37 38 37 37 38 36 34 29 26 25 31 32 26 21 23 25 34 37 32 29 24 23 20 18 20 22 23 23 24 25 28 29 29
37 39 36 40 38 39 38 39 43 43 41 40 40 39 39 36 34 32 32 33 34 34 34 27 20 25 24 26 29 26 22 23 17 18 18 19 24 25 26 27 27 24 25
36 36 40 40 38 39 39 39 40 42 42 42 42 41 41 40 39 37 34 38 37 34 31 28 24 23 25 23 25 24 23 22 19 18 17 18 18 20 22 19 18 20 20
36 38 38 38 40 41 41 42 42 43 42 42 42 41 39 37 38 42 37 37 35 33 30 26 22 16 18 16 30 23 20 16 18 16 14 15 15 14 13 15 18 18 18
38 37 39 39 40 41 44 46 44 38 39 38 37 35 34 39 45 50 50 49 43 38 33 28 26 24 24 21 20 18 16 9 6 13 17 15 14 14 16 17 17 20 23
34 37 38 37 39 39 42 43 43 42 37 34 34 35 37 37 42 42 43 47 45 33 28 24 18 13 15 21 17 13 11 9 11 10 7 13 15 17 17 16 16 20 25
35 35 35 35 35 36 36 38 39 41 38 38 39 39 36 33 39 37 33 24 21 19 20 19 21 16 14 15 15 12 10 10 10 9 11 11 14 16 15 18 20 25 29
32 33 31 30 31 30 29 33 30 34 36 31 34 35 33 31 26 25 25 22 21 19 15 15 18 18 17 17 12 9 6 6 6 12 12 16 14 16 16 18 26 20 15
25 25 21 14 14 17 21 26 28 27 23 15 9 7 9 12 16 20 22 27 26 19 17 15 12 11 7 8 10 10 5 6 7 6 6 5 9 8 8 10 13 12 20

GFSMA_925_spd_069.txt.gz
Wind_Speed
36 38 37 37 35 35 34 34 31 33 27 16 16 23 26 24 25 28 25 21 19 20 18 17 17 17 16 16 16 15 15 14 12 12 12 12 12 11 10 11 10 10 11
39 38 39 36 34 36 35 35 33 31 21 14 16 14 22 25 22 27 26 23 21 20 19 17 17 16 15 15 14 14 14 13 11 11 11 10 11 10 9 9 9 9 8
39 40 41 38 34 33 37 33 26 25 19 19 19 15 26 25 21 23 26 24 22 21 19 18 17 16 15 15 15 14 14 13 11 10 9 8 8 9 8 7 6 6 6
38 37 39 38 33 32 36 31 22 30 22 21 18 21 24 23 22 21 25 24 23 23 23 21 20 18 17 16 16 14 14 13 13 12 10 10 10 9 8 6 6 5 5
36 38 40 37 31 33 31 28 23 31 27 24 19 17 18 25 23 23 23 24 25 25 25 23 22 19 20 19 17 16 15 15 15 15 14 14 13 13 11 9 8 8 6
33 38 38 39 32 35 32 27 33 30 29 28 25 20 19 17 22 22 23 24 26 27 25 25 27 25 24 22 22 20 19 19 18 18 19 18 18 17 16 14 12 11 9
28 38 39 39 29 35 30 31 33 30 28 30 26 23 21 22 23 21 21 27 26 25 25 26 28 28 29 27 26 25 23 22 23 22 21 21 22 22 21 20 18 16 15
27 35 36 33 23 33 23 28 32 25 27 31 18 19 3 6 23 23 22 26 24 26 28 31 27 29 29 30 32 32 29 27 27 27 28 28 25 27 25 24 22 21 20
29 31 31 41 24 30 28 24 25 25 21 20 14 16 3 4 5 16 24 28 26 26 28 26 25 27 30 30 30 31 34 34 34 33 34 35 34 31 30 29 27 25 24
33 32 33 35 34 29 31 30 25 24 23 19 15 17 17 9 4 1 18 27 29 30 32 31 30 32 30 31 32 32 32 36 37 38 38 37 38 38 37 35 34 29 28
31 29 29 27 27 27 26 27 25 24 22 24 27 24 23 16 11 3 3 8 27 29 32 33 33 33 35 35 37 39 39 37 36 39 41 40 39 37 38 39 38 35 33
32 34 32 29 27 30 30 30 28 27 29 30 28 29 24 12 14 7 2 5 15 28 36 34 37 37 36 36 39 42 41 39 38 37 39 43 43 43 40 36 35 34 32
34 35 35 36 32 31 35 29 31 32 31 27 24 25 28 26 20 16 15 9 9 22 21 37 36 38 39 41 42 43 43 42 42 41 43 44 45 44 42 40 36 33 32
30 32 36 37 36 33 31 34 29 31 30 30 25 29 29 28 32 28 24 13 3 11 20 27 31 39 41 41 41 44 49 47 50 44 45 46 47 46 45 44 44 43 41
30 32 36 36 36 37 37 33 30 32 31 32 34 38 34 34 33 36 35 32 18 6 7 20 27 35 38 39 42 40 39 40 44 45 46 52 49 47 45 46 45 43 39
35 33 35 36 35 36 38 37 36 37 37 38 37 40 42 43 42 40 39 38 36 25 10 27 29 35 36 38 38 37 35 35 40 44 45 50 50 50 46 44 43 40 37
37 38 39 38 36 39 41 40 39 35 35 38 39 37 41 42 36 36 41 37 34 32 22 34 33 38 40 41 40 40 40 40 41 46 47 45 49 48 41 36 33 31 30
38 39 38 39 41 39 40 40 40 37 38 38 39 38 39 39 40 39 39 39 36 37 33 29 35 33 37 44 48 46 46 45 45 48 51 48 43 43 39 35 30 27 27
36 37 39 41 40 41 41 42 42 42 43 42 41 40 44 39 39 38 38 36 36 38 36 33 35 35 33 39 42 43 47 49 46 47 50 45 44 41 37 31 29 25 22
36 38 42 41 42 41 42 42 42 43 43 45 44 43 44 42 44 42 40 39 37 35 35 34 36 36 33 35 38 28 28 40 42 35 36 38 37 34 29 27 23 22 24
38 38 38 40 41 43 44 44 44 44 43 43 43 44 45 45 44 45 40 39 36 35 36 35 32 31 27 18 22 33 32 28 24 25 23 22 23 23 20 15 13 11 9
39 38 40 40 39 42 45 47 43 38 39 40 43 43 43 45 49 50 50 49 45 39 38 35 33 30 35 34 34 29 21 10 4 18 17 16 19 18 18 18 12 7 12
36 41 41 37 38 40 44 46 49 49 42 44 43 39 38 40 44 48 50 51 50 51 47 39 31 30 27 24 23 20 21 14 8 9 15 10 14 14 11 8 11 12 19
39 40 40 40 37 40 40 44 50 49 47 43 38 37 39 37 39 40 39 35 28 23 24 27 25 19 15 10 14 19 17 15 13 10 9 3 6 6 9 10 10 18 15
36 35 34 34 37 36 35 39 42 43 41 37 39 33 33 34 35 34 30 24 14 15 17 14 16 17 15 13 14 15 18 16 5 5 5 3 1 5 10 13 17 16 18
31 26 26 20 20 21 16 25 33 29 28 24 16 12 9 13 17 20 27 26 25 23 26 28 28 26 23 24 17 19 14 16 11 4 4 3 2 1 3 6 12 11 9

GFSMA_925_spd_072.txt.gz
Wind_Speed
42 38 36 36 38 39 38 39 35 32 28 23 21 31 28 28 29 30 27 24 23 21 20 19 18 18 17 16 16 15 14 14 13 14 13 13 12 12 11 10 10 10 9
42 36 36 39 41 41 40 40 36 33 26 17 19 30 26 26 30 29 27 24 22 21 19 18 18 18 18 17 16 15 14 12 12 13 13 12 11 10 9 8 8 8 7
44 43 42 40 41 40 40 37 33 29 23 16 24 28 26 27 28 28 27 25 24 21 21 18 18 17 16 17 16 16 14 13 12 12 11 11 10 9 9 9 8 8 7
45 42 43 40 40 39 40 38 35 31 23 19 25 27 28 28 27 27 26 26 24 23 21 20 20 19 18 17 17 16 15 15 13 12 12 12 11 10 10 9 9 8 7
42 42 43 41 39 39 40 36 33 29 24 22 22 25 29 27 27 27 25 25 25 24 23 22 20 19 19 18 18 17 16 17 17 15 15 14 14 13 12 12 11 10 9
38 40 40 41 40 41 39 34 31 28 27 25 22 25 25 26 26 26 24 24 25 25 25 24 23 21 20 19 19 19 19 19 20 19 19 18 18 17 16 16 15 14 13
35 39 37 40 42 42 42 37 28 32 32 28 24 23 23 25 26 24 25 26 28 27 27 26 26 26 26 25 24 23 21 22 23 22 22 23 22 22 21 20 19 19 18
34 34 37 38 39 39 41 37 29 28 26 34 18 18 4 7 22 27 27 28 28 29 28 28 29 30 29 29 31 29 27 26 26 27 26 28 29 28 25 24 24 24 22
34 34 34 36 38 39 39 34 31 32 24 34 29 16 3 4 7 15 26 28 31 32 30 31 31 32 33 34 33 33 34 34 32 32 32 33 34 32 30 27 28 28 27
28 28 34 37 32 33 31 34 33 32 31 27 23 27 17 12 3 1 19 28 31 34 33 33 33 33 35 34 33 34 34 36 37 37 37 35 37 39 38 37 37 34 30
30 26 31 36 36 33 33 29 22 22 31 34 26 25 19 14 12 4 4 9 27 33 34 35 33 34 34 35 36 37 36 36 36 36 38 41 42 40 43 43 42 42 40
33 25 25 32 28 27 29 32 24 24 27 34 29 29 28 15 12 6 2 6 12 26 36 35 36 38 39 38 38 38 38 38 38 39 40 42 43 45 47 45 46 46 45
34 34 33 31 39 32 28 37 38 36 33 29 30 30 27 23 15 19 17 8 9 19 19 37 40 40 41 41 41 42 41 41 41 42 44 45 44 45 47 51 50 49 48
35 35 38 36 36 35 35 36 39 40 32 30 31 31 32 28 20 15 13 11 3 6 18 21 25 35 40 41 41 42 44 45 45 47 50 48 48 48 49 50 52 54 51
30 32 39 41 39 37 35 32 32 32 33 33 34 34 34 33 31 30 28 19 15 8 6 22 27 33 36 39 40 45 45 44 41 43 46 46 46 53 54 53 51 55 54
31 31 34 38 41 40 38 36 34 37 36 37 38 38 37 37 35 35 40 35 32 25 12 27 28 32 35 39 40 43 46 47 46 44 44 42 40 45 49 54 56 57 52
37 35 36 38 38 40 42 41 39 38 38 38 39 38 40 40 35 36 39 39 35 32 23 33 32 35 36 39 42 46 47 48 48 47 46 46 45 41 46 51 54 51 48
36 39 37 37 38 38 36 36 36 34 37 38 38 37 41 39 40 40 36 36 35 37 32 29 35 34 38 44 46 46 50 52 49 51 50 47 48 48 45 49 50 48 47
33 35 38 38 38 39 40 40 38 37 36 35 36 37 40 36 39 39 38 37 37 37 36 32 36 38 36 36 40 42 45 44 45 47 48 48 49 50 46 45 48 40 35
34 34 37 37 38 39 39 39 39 40 41 42 42 44 43 41 42 41 39 40 40 36 35 33 34 37 36 33 37 34 33 38 46 47 48 51 47 43 39 34 34 32 29
35 35 35 35 36 39 41 41 40 39 40 40 40 43 43 44 46 46 40 40 37 34 34 34 33 34 33 28 26 36 33 37 33 35 36 38 34 29 28 28 27 27 26
35 36 37 36 37 40 42 43 41 38 39 39 41 43 42 43 47 50 51 53 46 38 38 35 34 31 35 34 35 36 35 20 7 17 24 19 19 23 25 27 27 20 15
33 37 38 38 38 40 43 43 45 47 41 40 41 40 38 38 42 46 49 52 53 55 54 47 42 40 40 40 37 27 30 23 16 15 22 11 14 18 17 18 15 14 10
34 36 37 38 37 41 42 45 47 48 46 44 40 38 39 41 42 43 44 41 46 49 53 53 49 42 41 34 28 23 24 15 13 10 11 2 12 9 11 11 10 7 5
23 35 32 32 34 35 31 38 44 48 42 43 41 43 46 45 44 44 44 44 33 17 7 9 9 8 9 8 9 12 17 18 5 3 5 5 5 7 6 7 6 9 11
8 3 5 7 8 4 6 17 30 29 34 34 30 22 22 25 30 33 32 34 23 18 18 22 23 20 18 16 11 10 13 11 10 3 3 6 5 3 2 1 10 10 10